<- Previous Day | Today | Next Day ->

All Data for 20 October 2020

 

Time A - D Temp A - D Dew Point A - D Humidity A - D Pressure A - D Wind A - D Wind Dir Gust A - D Rain Rate A - D Rain Total
00:00 13.6 11.3 86 996.5 21.3 SW 27.3 0.0 0.0
00:01 13.6 11.3 86 996.3 19.0 S 27.3 0.0 0.0
00:03 13.7 11.4 86 996.2 21.3 SW 27.3 0.0 0.0
00:04 13.7 11.4 86 996.2 22.8 SE 27.3 0.0 0.0
00:05 13.7 11.4 86 996.3 16.8 S 27.3 0.0 0.0
00:06 13.7 11.4 86 996.4 22.1 SW 22.8 0.0 0.0
00:07 13.7 11.4 86 996.3 25.1 SW 25.1 0.0 0.0
00:08 13.7 11.4 86 996.2 25.1 NW 25.1 0.0 0.0
00:09 13.7 11.4 86 996.3 21.3 SW 25.1 0.0 0.0
00:10 13.7 11.4 86 996.1 21.3 SW 25.1 0.0 0.0
00:11 13.7 11.4 86 996.2 23.5 S 25.1 0.0 0.0
00:12 13.7 11.4 86 996.5 23.5 S 25.1 0.0 0.0
00:13 13.7 11.4 86 996.2 17.4 S 25.1 0.0 0.0
00:14 13.7 11.4 86 996.4 25.1 S 25.1 0.0 0.0
00:15 13.7 11.4 86 996.3 22.1 S 25.1 0.0 0.0
00:17 13.7 11.4 86 996.2 24.4 SW 25.1 0.0 0.0
00:18 13.7 11.4 86 996.2 19.7 SW 25.1 0.0 0.0
00:19 13.7 11.4 86 996.1 22.8 S 25.1 0.0 0.0
00:20 13.8 11.5 86 996.4 25.1 S 25.1 0.0 0.0
00:21 13.8 11.5 86 996.2 25.1 S 25.1 0.0 0.0
00:22 13.8 11.5 86 996.2 25.1 S 25.1 0.0 0.0
00:23 13.8 11.5 86 996.4 19.0 SW 27.3 0.0 0.0
00:24 13.8 11.5 86 996.5 25.1 S 27.3 0.0 0.0
00:25 13.8 11.5 86 996.2 25.1 SW 27.3 0.0 0.0
00:26 13.8 11.5 86 996.2 25.1 SW 27.3 0.0 0.0
00:27 13.8 11.5 86 996.3 22.8 S 27.3 0.0 0.0
00:28 13.8 11.5 86 996.0 19.0 S 27.3 0.0 0.0
00:29 13.8 11.5 86 996.3 23.5 SW 27.3 0.8 0.1
00:31 13.8 11.5 86 996.1 17.4 SW 27.3 0.8 0.1
00:32 13.8 11.5 86 996.3 16.8 S 27.3 0.8 0.1
00:33 13.8 11.5 86 996.4 19.7 S 25.1 0.8 0.1
00:34 13.8 11.5 86 996.2 21.3 W 25.1 0.0 0.1
00:35 13.8 11.5 86 996.3 17.4 W 25.1 0.0 0.1
00:36 13.8 11.5 86 996.1 17.4 W 25.1 0.0 0.1
00:37 13.8 11.5 86 996.2 27.3 S 27.3 0.0 0.1
00:38 13.8 11.5 86 996.3 27.3 W 27.3 0.0 0.1
00:39 13.8 11.5 86 996.2 29.8 SW 29.8 0.0 0.1
00:40 13.8 11.5 86 996.3 25.9 S 29.8 0.0 0.1
00:41 13.8 11.5 86 996.1 25.9 S 29.8 0.0 0.1
00:42 13.8 11.5 86 996.0 21.3 S 29.8 0.0 0.1
00:43 13.8 11.5 86 996.3 17.4 SW 29.8 0.0 0.1
00:45 13.8 11.5 86 996.3 22.8 S 29.8 0.0 0.1
00:46 13.8 11.5 86 996.3 28.2 S 29.8 0.0 0.1
00:47 13.8 11.5 86 996.1 28.2 S 29.8 0.0 0.1
00:48 13.8 11.7 87 996.2 20.6 SW 29.8 0.0 0.1
00:49 13.8 11.7 87 996.2 20.6 SW 28.2 0.0 0.1
00:50 13.8 11.7 87 996.2 20.6 SW 28.2 0.0 0.1
00:51 13.8 11.7 87 996.4 18.3 SW 28.2 0.0 0.1
00:52 13.8 11.7 87 996.3 25.9 SW 28.2 0.0 0.1
00:53 13.8 11.7 87 996.3 21.3 SW 28.2 0.0 0.1
00:54 13.8 11.7 87 996.1 19.0 SW 28.2 0.0 0.1
00:55 13.8 11.7 87 996.3 19.7 S 28.2 0.0 0.1
00:56 13.8 11.7 87 996.1 21.3 SW 28.2 0.0 0.1
00:57 13.8 11.7 87 996.3 21.3 SW 28.2 0.0 0.1
00:59 13.8 11.7 87 996.1 19.0 SW 25.9 0.0 0.1
01:00 13.8 11.7 87 996.0 19.0 SW 25.9 0.0 0.1
01:01 13.8 11.7 87 995.9 19.0 SW 25.9 0.0 0.1
01:02 13.8 11.7 87 996.0 19.0 SW 21.3 0.0 0.1
01:03 13.8 11.7 87 995.8 19.0 SW 21.3 0.0 0.1
01:04 13.8 11.7 87 995.8 19.0 SW 21.3 0.0 0.1
01:05 13.8 11.7 87 996.0 19.0 SW 21.3 0.0 0.1
01:06 13.8 11.7 87 996.2 19.0 SW 21.3 0.0 0.1
01:07 13.8 11.7 87 996.0 17.4 S 21.3 0.0 0.1
01:08 13.8 11.7 87 995.9 26.6 SE 26.6 0.0 0.1
01:09 13.8 11.7 87 995.8 26.6 SE 26.6 0.0 0.1
01:10 13.8 11.7 87 995.8 22.8 SSW 26.6 0.0 0.1
01:11 13.8 11.7 87 995.8 19.7 S 26.6 0.0 0.1
01:13 13.8 11.7 87 995.7 18.3 S 26.6 0.0 0.1
01:14 13.8 11.7 87 995.9 17.4 S 26.6 0.0 0.1
01:15 13.8 11.7 87 995.6 17.4 S 26.6 0.0 0.1
01:16 13.8 11.7 87 995.8 20.6 SW 26.6 0.0 0.1
01:17 13.7 11.6 87 995.8 19.0 SW 26.6 0.0 0.1
01:18 13.7 11.6 87 995.8 19.0 SW 26.6 0.0 0.1
01:19 13.7 11.4 86 995.9 19.7 S 22.8 0.0 0.1
01:20 13.7 11.4 86 995.9 17.4 SW 22.1 0.0 0.1
01:21 13.7 11.4 86 995.9 16.8 SW 22.1 0.0 0.1
01:22 13.7 11.4 86 995.8 16.8 SW 22.1 0.0 0.1
01:23 13.7 11.4 86 995.8 19.0 S 20.6 0.0 0.1
01:24 13.7 11.4 86 995.9 26.6 SW 26.6 0.0 0.1
01:25 13.7 11.4 86 995.9 26.6 SW 26.6 0.0 0.1
01:27 13.7 11.4 86 995.8 18.3 SW 26.6 0.0 0.1
01:28 13.7 11.4 86 995.6 19.0 S 26.6 0.0 0.1
01:29 13.7 11.4 86 996.0 16.8 SW 26.6 0.0 0.1
01:30 13.7 11.4 86 995.9 15.2 SW 26.6 0.0 0.1
01:31 13.7 11.4 86 995.9 19.7 S 26.6 0.0 0.1
01:32 13.7 11.4 86 995.7 19.7 S 26.6 0.0 0.1
01:33 13.7 11.4 86 995.7 19.7 S 26.6 0.0 0.1
01:34 13.7 11.4 86 995.8 19.0 SW 26.6 0.0 0.1
01:35 13.7 11.4 86 995.8 17.4 S 21.3 0.0 0.1
01:36 13.7 11.4 86 995.8 19.7 S 21.3 0.0 0.1
01:37 13.7 11.4 86 995.9 19.7 S 21.3 0.0 0.1
01:38 13.7 11.4 86 995.9 18.3 SW 21.3 0.0 0.1
01:39 13.7 11.4 86 995.8 19.0 S 19.7 0.0 0.1
01:41 13.7 11.4 86 995.8 17.4 S 19.7 0.0 0.1
01:42 13.7 11.4 86 995.9 19.7 SW 19.7 0.0 0.1
01:43 13.7 11.4 86 995.8 19.7 SW 19.7 0.0 0.1
01:44 13.7 11.4 86 995.7 18.3 S 19.7 0.0 0.1
01:45 13.7 11.4 86 995.7 18.3 SW 19.7 0.0 0.1
01:46 13.7 11.4 86 995.7 18.3 SW 19.7 0.0 0.1
01:47 13.7 11.4 86 995.9 16.8 SW 19.7 0.0 0.1
01:48 13.7 11.4 86 996.0 16.8 SW 19.7 0.0 0.1
01:49 13.7 11.4 86 995.8 16.8 SW 19.7 0.0 0.1
01:50 13.7 11.4 86 995.5 22.1 S 22.1 0.0 0.1
01:51 13.7 11.4 86 995.7 19.0 SW 22.1 0.0 0.1
01:52 13.7 11.4 86 995.8 19.0 S 22.1 0.0 0.1
01:53 13.7 11.6 87 995.7 19.0 S 22.1 0.0 0.1
01:55 13.7 11.6 87 995.9 19.0 S 22.1 0.0 0.1
01:56 13.7 11.6 87 995.9 16.8 S 22.1 0.0 0.1
01:57 13.8 11.7 87 995.9 17.4 S 22.1 0.0 0.1
01:58 13.8 11.7 87 995.8 20.6 S 22.1 0.0 0.1
01:59 13.8 11.7 87 995.7 18.3 SW 22.1 0.0 0.1
02:00 13.8 11.7 87 995.6 19.0 SSW 20.6 0.0 0.1
02:01 13.8 11.7 87 995.8 19.0 S 20.6 0.0 0.1
02:02 13.8 11.7 87 995.8 17.4 S 20.6 0.0 0.1
02:03 13.8 11.7 87 995.7 16.8 SW 20.6 0.0 0.1
02:04 13.8 11.7 87 995.6 23.5 S 23.5 0.0 0.1
02:05 13.8 11.7 87 995.7 19.0 S 23.5 0.0 0.1
02:06 13.8 11.7 87 995.9 19.7 S 23.5 0.0 0.1
02:07 13.8 11.7 87 995.8 16.8 SW 23.5 0.0 0.1
02:09 13.8 11.7 87 995.7 16.8 S 23.5 0.0 0.1
02:10 13.8 11.7 87 995.7 16.8 S 23.5 0.0 0.1
02:11 13.8 11.7 87 995.7 15.9 SW 23.5 0.0 0.1
02:12 13.8 11.7 87 995.6 21.3 SW 23.5 0.0 0.1
02:13 13.8 11.7 87 995.6 14.5 S 23.5 0.0 0.1
02:14 13.8 11.7 87 995.6 14.5 S 23.5 0.0 0.1
02:15 13.8 11.7 87 995.5 19.7 S 21.3 0.0 0.1
02:16 13.8 11.7 87 995.5 23.5 SW 23.5 0.0 0.1
02:17 13.9 11.8 87 995.5 22.8 SW 23.5 0.0 0.1
02:18 13.9 11.8 87 995.5 19.0 S 23.5 0.0 0.1
02:19 13.9 11.8 87 995.7 14.5 S 23.5 0.0 0.1
02:20 13.9 11.8 87 995.4 15.2 SW 23.5 0.0 0.1
02:21 13.9 11.8 87 995.3 20.6 S 23.5 0.0 0.1
02:23 13.9 11.8 87 995.5 22.8 S 23.5 0.0 0.1
02:24 13.9 11.8 87 995.3 22.8 S 23.5 0.0 0.1
02:25 13.9 11.8 87 995.4 22.8 SW 23.5 0.0 0.1
02:26 13.9 11.8 87 995.4 22.1 SSW 22.8 0.0 0.1
02:27 13.9 11.8 87 995.3 21.3 S 22.8 0.0 0.1
02:28 13.9 11.8 87 995.6 21.3 SW 22.8 0.0 0.1
02:29 13.9 11.8 87 995.5 20.6 WSW 22.8 0.0 0.1
02:30 13.9 11.8 87 995.4 21.3 SW 22.8 0.0 0.1
02:31 13.9 11.8 87 995.6 16.8 SW 22.8 0.0 0.1
02:32 13.9 11.8 87 995.5 20.6 S 22.8 0.0 0.1
02:33 13.9 11.8 87 995.4 25.9 S 25.9 0.0 0.1
02:34 13.9 11.8 87 995.5 25.9 S 25.9 0.0 0.1
02:35 13.9 11.8 87 995.6 18.3 SW 25.9 0.0 0.1
02:37 13.9 11.8 87 995.6 15.9 W 25.9 0.0 0.1
02:38 13.9 11.8 87 995.8 15.9 W 25.9 0.0 0.1
02:39 13.9 11.8 87 995.6 15.2 S 25.9 0.0 0.1
02:40 13.9 11.8 87 995.5 17.4 W 25.9 0.0 0.1
02:41 13.9 11.8 87 995.5 19.7 S 25.9 0.0 0.1
02:42 13.9 11.8 87 995.5 19.7 S 25.9 0.0 0.1
02:43 13.9 11.8 87 995.7 19.0 SW 25.9 0.0 0.1
02:44 13.9 11.8 87 995.6 19.0 S 20.6 0.0 0.1
02:45 13.9 11.8 87 995.4 19.7 SW 20.6 0.0 0.1
02:46 13.9 11.8 87 995.7 19.0 SW 20.6 0.0 0.1
02:47 13.9 11.8 87 995.5 18.3 SW 19.7 0.0 0.1
02:48 13.9 11.8 87 995.4 20.6 SW 20.6 0.0 0.1
02:49 13.9 11.8 87 995.5 16.8 SW 20.6 0.0 0.1
02:51 13.9 11.8 87 995.5 14.5 S 20.6 0.0 0.1
02:52 13.8 11.7 87 995.5 19.7 S 20.6 0.0 0.1
02:53 13.8 11.7 87 995.4 19.7 S 20.6 0.0 0.1
02:54 13.8 11.7 87 995.5 19.7 S 20.6 0.0 0.1
02:55 13.8 11.7 87 995.5 17.4 SW 20.6 0.0 0.1
02:56 13.8 11.7 87 995.4 18.3 S 20.6 0.0 0.1
02:57 13.9 11.8 87 995.5 15.2 SW 20.6 0.0 0.1
02:58 13.9 11.8 87 995.6 29.8 SW 29.8 0.0 0.1
02:59 13.9 11.8 87 995.5 28.2 S 29.8 0.0 0.1
03:00 13.9 11.8 87 995.5 28.2 SW 29.8 0.0 0.1
03:01 13.9 11.8 87 995.4 28.2 SW 29.8 0.0 0.1
03:02 13.9 11.8 87 995.4 28.2 SW 29.8 0.0 0.1
03:03 13.9 11.8 87 995.3 28.2 SW 29.8 0.0 0.1
03:05 13.9 11.8 87 995.5 28.2 SW 29.8 0.0 0.1
03:06 13.9 11.8 87 995.5 28.2 SW 29.8 0.0 0.1
03:07 13.9 11.8 87 995.4 28.2 SW 29.8 0.0 0.1
03:08 13.9 11.8 87 995.6 19.0 SW 29.8 0.0 0.1
03:09 13.9 11.8 87 995.4 16.8 W 28.2 0.0 0.1
03:10 13.9 11.8 87 995.4 16.8 W 28.2 0.0 0.1
03:11 13.9 11.8 87 995.3 21.3 SE 28.2 0.0 0.1
03:12 13.9 11.8 87 995.5 17.4 SW 28.2 0.0 0.1
03:13 13.9 11.8 87 995.4 17.4 S 28.2 0.0 0.1
03:14 13.9 11.8 87 995.2 15.2 S 28.2 0.0 0.1
03:15 13.9 11.8 87 995.2 15.9 S 28.2 0.0 0.1
03:16 13.9 11.8 87 995.4 18.3 SW 28.2 0.0 0.1
03:17 13.8 11.7 87 995.1 18.3 SW 28.2 0.0 0.1
03:19 13.8 11.7 87 995.1 18.3 SW 21.3 0.0 0.1
03:20 13.8 11.7 87 995.2 15.2 S 21.3 0.0 0.1
03:21 13.8 11.7 87 995.2 16.8 S 19.7 0.0 0.1
03:22 13.8 11.7 87 995.2 15.9 S 19.7 0.0 0.1
03:23 13.8 11.7 87 995.4 18.3 S 19.7 0.0 0.1
03:24 13.8 11.7 87 995.2 15.2 SW 19.7 0.0 0.1
03:25 13.8 11.7 87 995.1 15.9 SW 19.7 0.0 0.1
03:26 13.8 11.7 87 995.3 19.7 S 19.7 0.0 0.1
03:27 13.8 11.7 87 995.2 19.0 S 19.7 0.0 0.1
03:28 13.8 11.7 87 995.2 19.0 SW 19.7 0.0 0.1
03:29 13.8 11.7 87 995.2 19.7 SE 19.7 0.0 0.1
03:30 13.8 11.7 87 995.1 19.7 SE 19.7 0.0 0.1
03:31 13.8 11.7 87 995.2 19.7 S 19.7 0.0 0.1
03:33 13.8 11.7 87 995.3 19.0 SW 19.7 0.0 0.1
03:34 13.8 11.7 87 995.4 18.3 S 19.7 0.0 0.1
03:35 13.8 11.7 87 995.2 21.3 SW 21.3 0.0 0.1
03:36 13.8 11.7 87 995.2 15.2 S 21.3 0.0 0.1
03:37 13.8 11.7 87 995.1 15.9 SW 21.3 0.0 0.1
03:38 13.8 11.7 87 995.1 15.9 SW 21.3 0.0 0.1
03:39 13.8 11.7 87 995.0 20.6 SW 21.3 0.0 0.1
03:40 13.8 11.7 87 995.0 17.4 SW 21.3 0.0 0.1
03:41 13.8 11.7 87 995.4 20.6 SW 21.3 0.0 0.1
03:42 13.8 11.7 87 995.2 20.6 S 21.3 0.0 0.1
03:43 13.8 11.7 87 995.2 19.7 S 21.3 0.0 0.1
03:44 13.8 11.7 87 995.1 16.8 S 21.3 0.0 0.1
03:45 13.8 11.7 87 995.2 17.4 S 21.3 0.0 0.1
03:47 13.8 11.7 87 995.0 20.6 SW 20.6 0.0 0.1
03:48 13.8 11.7 87 995.0 20.6 S 21.3 0.0 0.1
03:49 13.8 11.7 87 995.1 19.0 E 21.3 0.0 0.1
03:50 13.8 11.7 87 995.2 19.0 SW 21.3 0.0 0.1
03:51 13.8 11.7 87 995.0 23.5 S 23.5 0.0 0.1
03:52 13.8 11.7 87 995.1 23.5 S 23.5 0.0 0.1
03:53 13.8 11.7 87 995.0 16.8 S 23.5 0.0 0.1
03:54 13.8 11.7 87 994.9 22.8 S 23.5 0.0 0.1
03:55 13.9 11.8 87 995.3 20.6 S 23.5 0.0 0.1
03:56 13.9 11.8 87 994.9 19.7 SW 23.5 0.0 0.1
03:57 13.9 11.8 87 995.2 19.7 SW 23.5 0.0 0.1
03:58 13.9 11.8 87 995.1 18.3 SW 23.5 0.0 0.1
03:59 13.9 11.8 87 994.9 18.3 S 23.5 0.0 0.1
04:01 13.9 11.8 87 994.9 20.6 S 23.5 0.0 0.1
04:02 13.9 11.8 87 994.9 20.6 S 22.8 0.0 0.1
04:03 13.9 11.8 87 994.8 20.6 SW 22.8 0.0 0.1
04:04 13.9 11.8 87 994.9 21.3 WNW 21.3 0.0 0.1
04:05 13.9 11.8 87 994.9 15.9 S 21.3 0.0 0.1
04:06 13.9 11.8 87 994.9 15.9 S 21.3 0.0 0.1
04:07 13.9 11.8 87 994.9 19.7 S 21.3 0.0 0.1
04:08 13.9 11.8 87 994.9 18.3 SW 21.3 0.0 0.1
04:09 13.9 11.8 87 994.8 14.5 S 21.3 0.0 0.1
04:10 13.9 11.8 87 994.7 16.8 S 21.3 0.0 0.1
04:11 13.9 11.8 87 995.0 22.8 SW 22.8 0.0 0.1
04:12 13.9 11.8 87 995.0 22.8 S 22.8 0.0 0.1
04:13 13.9 11.8 87 994.9 19.7 SW 22.8 0.0 0.1
04:15 13.9 11.8 87 995.0 20.6 SW 22.8 0.0 0.1
04:16 13.9 11.8 87 995.1 22.8 W 22.8 0.0 0.1
04:17 13.9 11.8 87 995.0 21.3 SW 22.8 0.0 0.1
04:18 13.9 11.8 87 994.9 24.4 N 24.4 0.0 0.1
04:19 13.9 11.8 87 994.8 21.3 S 24.4 0.0 0.1
04:20 13.9 11.8 87 994.9 18.3 SW 24.4 0.0 0.1
04:21 13.9 11.8 87 995.0 19.0 SW 24.4 0.0 0.1
04:22 13.9 11.8 87 995.0 21.3 S 24.4 0.0 0.1
04:23 13.9 11.8 87 995.0 23.5 S 24.4 0.0 0.1
04:24 13.9 11.8 87 994.8 19.7 S 24.4 0.0 0.1
04:25 13.9 11.8 87 995.2 16.8 SW 24.4 0.0 0.1
04:26 13.9 11.8 87 995.1 19.7 SW 24.4 0.0 0.1
04:27 13.9 11.8 87 994.9 19.7 S 24.4 0.0 0.1
04:29 13.9 11.8 87 995.3 25.9 SW 25.9 0.0 0.1
04:30 13.9 11.8 87 995.0 25.1 S 25.9 0.0 0.1
04:31 13.9 11.8 87 995.0 27.3 S 27.3 0.0 0.1
04:32 13.9 11.8 87 995.0 19.0 S 27.3 0.0 0.1
04:33 13.9 11.8 87 995.1 23.5 S 27.3 0.0 0.1
04:34 13.9 11.8 87 995.1 23.5 S 27.3 0.0 0.1
04:35 13.9 11.8 87 995.0 19.0 S 27.3 0.0 0.1
04:36 13.9 11.8 87 995.0 25.1 S 27.3 0.0 0.1
04:37 13.9 11.8 87 994.9 21.3 S 27.3 0.0 0.1
04:38 13.9 11.8 87 994.9 21.3 SW 27.3 0.0 0.1
04:39 13.9 11.8 87 994.8 21.3 SW 27.3 0.0 0.1
04:40 13.9 11.8 87 994.9 21.3 S 27.3 0.0 0.1
04:41 13.9 11.8 87 995.0 27.3 S 27.3 0.0 0.1
04:43 13.9 11.8 87 995.1 28.2 S 28.2 0.0 0.1
04:44 13.8 11.7 87 995.0 25.9 S 28.2 0.0 0.1
04:45 13.8 11.7 87 994.9 26.6 SW 28.2 0.0 0.1
04:46 13.8 11.5 86 994.9 22.1 S 28.2 0.0 0.1
04:47 13.8 11.5 86 994.7 21.3 SE 28.2 0.0 0.1
04:48 13.8 11.5 86 994.6 17.4 S 28.2 0.0 0.1
04:49 13.8 11.5 86 994.6 22.8 S 28.2 0.0 0.1
04:50 13.8 11.5 86 994.7 22.8 SW 28.2 0.0 0.1
04:51 13.8 11.5 86 994.8 20.6 WNW 28.2 0.0 0.1
04:52 13.8 11.5 86 994.7 20.6 SW 28.2 0.0 0.1
04:53 13.8 11.5 86 994.6 17.4 S 28.2 0.0 0.1
04:54 13.8 11.5 86 994.9 22.1 SW 26.6 0.0 0.1
04:55 13.8 11.5 86 994.8 15.2 SW 26.6 0.0 0.1
04:57 13.8 11.5 86 994.8 19.0 SW 28.9 0.0 0.1
04:58 13.8 11.5 86 994.7 22.1 S 28.9 0.0 0.1
04:59 13.8 11.5 86 994.9 21.3 SW 28.9 0.0 0.1
05:00 13.8 11.5 86 995.1 22.8 SW 28.9 0.0 0.1
05:01 13.8 11.5 86 994.7 22.8 SW 28.9 0.0 0.1
05:02 13.8 11.5 86 994.7 22.8 SW 28.9 0.0 0.1
05:03 13.8 11.5 86 994.9 22.8 SW 28.9 0.0 0.1
05:04 13.8 11.5 86 995.0 22.8 SW 28.9 0.0 0.1
05:05 13.8 11.5 86 994.8 22.8 SW 28.9 0.0 0.1
05:06 13.8 11.5 86 995.0 22.8 SW 28.9 0.0 0.1
05:07 13.8 11.5 86 995.0 15.9 S 22.8 0.0 0.1
05:08 13.8 11.5 86 994.9 20.6 S 22.8 0.0 0.1
05:09 13.8 11.5 86 994.9 20.6 SW 22.8 0.0 0.1
05:11 13.8 11.5 86 995.1 22.8 SW 25.9 0.0 0.1
05:12 13.8 11.5 86 994.9 22.1 S 25.9 0.0 0.1
05:13 13.8 11.5 86 995.1 19.7 S 25.9 0.0 0.1
05:14 13.8 11.5 86 994.9 19.7 SW 25.9 0.0 0.1
05:15 13.8 11.5 86 995.1 21.3 S 25.9 0.0 0.1
05:16 13.8 11.5 86 994.8 27.3 S 27.3 0.0 0.1
05:17 13.8 11.5 86 994.8 27.3 S 27.3 0.0 0.1
05:18 13.8 11.5 86 995.0 27.3 SW 27.3 0.0 0.1
05:19 13.9 11.6 86 995.0 16.8 S 27.3 0.0 0.1
05:20 13.9 11.6 86 995.1 21.3 S 27.3 0.0 0.1
05:21 13.9 11.6 86 994.9 21.3 S 27.3 0.0 0.1
05:22 13.9 11.6 86 995.1 19.7 S 27.3 0.0 0.1
05:23 13.9 11.6 86 994.9 19.0 S 27.3 0.0 0.1
05:24 13.9 11.6 86 994.8 22.1 SW 27.3 0.0 0.1
05:26 13.9 11.6 86 994.7 21.3 SE 27.3 0.0 0.1
05:27 13.9 11.6 86 995.0 21.3 S 27.3 0.0 0.1
05:28 13.9 11.6 86 994.8 17.4 SW 22.1 0.0 0.1
05:29 13.9 11.6 86 994.8 19.7 S 22.1 0.0 0.1
05:30 13.9 11.6 86 994.7 20.6 SW 22.1 0.0 0.1
05:31 13.9 11.6 86 994.9 22.1 SW 22.1 0.0 0.1
05:32 13.9 11.6 86 994.7 31.1 SW 31.1 0.0 0.1
05:33 13.9 11.6 86 994.8 31.1 S 31.1 0.0 0.1
05:34 13.9 11.6 86 994.8 28.2 S 31.1 0.0 0.1
05:35 13.9 11.6 86 994.8 19.0 S 31.1 0.0 0.1
05:36 13.9 11.6 86 994.9 27.3 W 31.1 0.0 0.1
05:37 13.9 11.6 86 994.8 27.3 SW 31.1 0.0 0.1
05:39 13.9 11.6 86 994.7 21.3 SW 31.1 0.0 0.1
05:40 13.9 11.6 86 994.7 19.7 SW 31.1 0.0 0.1
05:41 13.9 11.6 86 994.7 19.0 SW 31.1 0.0 0.1
05:42 13.9 11.6 86 994.9 19.0 SW 31.1 0.0 0.1
05:43 13.9 11.6 86 994.8 22.1 SW 28.2 0.0 0.1
05:44 13.9 11.6 86 994.7 19.7 S 27.3 0.0 0.1
05:45 13.9 11.6 86 994.7 19.7 S 27.3 0.0 0.1
05:46 13.9 11.6 86 994.9 20.6 SW 27.3 0.0 0.1
05:47 13.9 11.6 86 994.6 23.5 S 27.3 0.0 0.1
05:48 13.9 11.6 86 994.7 23.5 S 23.5 0.0 0.1
05:49 13.9 11.6 86 994.5 21.3 SW 23.5 0.0 0.1
05:50 13.9 11.6 86 994.8 15.2 SW 23.5 0.0 0.1
05:51 13.9 11.6 86 994.9 25.1 W 25.1 0.0 0.1
05:53 13.9 11.6 86 994.6 25.1 S 25.1 0.0 0.1
05:54 13.9 11.4 85 994.8 27.3 S 27.3 0.0 0.1
05:55 13.9 11.4 85 994.8 25.9 S 27.3 0.0 0.1
05:56 13.9 11.4 85 994.8 19.0 S 27.3 0.0 0.1
05:57 13.9 11.4 85 994.7 24.4 S 27.3 0.0 0.1
05:58 13.9 11.4 85 994.6 22.1 SW 27.3 0.0 0.1
05:59 13.9 11.4 85 994.6 22.1 SE 27.3 0.0 0.1
06:00 13.9 11.4 85 994.6 20.6 S 27.3 0.0 0.1
06:01 13.9 11.4 85 994.7 23.5 SW 27.3 0.0 0.1
06:02 13.9 11.4 85 994.7 22.8 S 27.3 0.0 0.1
06:03 13.9 11.4 85 994.6 25.9 S 27.3 0.0 0.1
06:04 13.9 11.4 85 994.5 18.3 S 27.3 0.0 0.1
06:05 13.9 11.4 85 994.6 22.8 S 25.9 0.0 0.1
06:06 13.9 11.4 85 994.6 28.2 SE 31.1 0.0 0.1
06:08 13.8 11.3 85 994.7 19.7 SW 31.1 0.0 0.1
06:09 13.8 11.3 85 994.5 15.9 SW 31.1 0.0 0.1
06:10 13.8 11.3 85 994.5 20.6 SW 31.1 0.0 0.1
06:11 13.8 11.3 85 994.6 22.8 SW 31.1 0.0 0.1
06:12 13.8 11.3 85 994.7 23.5 SW 31.1 0.0 0.1
06:13 13.8 11.3 85 994.7 23.5 SW 31.1 0.0 0.1
06:14 13.8 11.3 85 994.3 24.4 S 31.1 0.0 0.1
06:15 13.8 11.3 85 994.7 22.1 SW 31.1 0.0 0.1
06:16 13.8 11.3 85 994.6 21.3 SW 28.2 0.0 0.1
06:17 13.8 11.3 85 994.5 21.3 S 28.2 0.0 0.1
06:18 13.8 11.3 85 994.6 19.0 SW 28.2 0.0 0.1
06:19 13.8 11.3 85 994.7 26.6 S 26.6 0.0 0.1
06:20 13.8 11.3 85 994.8 22.8 S 26.6 0.0 0.1
06:22 13.7 11.2 85 994.6 21.3 S 26.6 0.0 0.1
06:23 13.7 11.2 85 994.6 19.7 SW 26.6 0.0 0.1
06:24 13.7 11.2 85 994.5 19.7 SW 26.6 0.0 0.1
06:25 13.7 11.2 85 994.7 19.0 SW 26.6 0.0 0.1
06:26 13.7 11.2 85 994.7 23.5 S 26.6 0.0 0.1
06:27 13.6 11.1 85 994.5 17.4 S 26.6 0.0 0.1
06:28 13.6 11.0 84 994.4 13.0 S 26.6 0.0 0.1
06:29 13.6 11.0 84 994.5 15.2 SW 26.6 0.0 0.1
06:30 13.6 11.0 84 994.4 21.3 S 25.1 0.0 0.1
06:31 13.6 11.0 84 994.6 25.1 SW 25.1 0.0 0.1
06:32 13.6 11.0 84 994.7 22.1 SW 25.1 0.0 0.1
06:33 13.6 11.0 84 994.5 23.5 SW 25.1 0.0 0.1
06:34 13.6 11.0 84 994.6 22.1 SW 25.1 0.0 0.1
06:36 13.5 10.9 84 994.4 25.9 SW 25.9 0.0 0.1
06:37 13.5 10.9 84 994.5 21.3 SW 25.9 0.0 0.1
06:38 13.5 10.9 84 994.5 24.4 S 25.9 0.0 0.1
06:39 13.5 10.9 84 994.4 19.7 S 25.9 0.0 0.1
06:40 13.5 10.9 84 994.5 22.1 S 25.9 0.0 0.1
06:41 13.5 10.9 84 994.5 22.1 S 25.9 0.0 0.1
06:42 13.5 10.9 84 994.6 15.9 S 25.9 0.0 0.1
06:43 13.5 10.9 84 994.5 18.3 SW 25.9 0.0 0.1
06:44 13.5 10.9 84 994.5 15.2 SW 25.9 0.0 0.1
06:45 13.5 10.9 84 994.5 19.0 S 25.9 0.0 0.1
06:46 13.5 10.9 84 994.5 22.1 S 25.9 0.0 0.1
06:47 13.4 10.8 84 994.4 23.5 SW 25.9 0.0 0.1
06:49 13.4 10.8 84 994.4 24.4 S 24.4 0.0 0.1
06:50 13.4 10.8 84 994.7 24.4 SW 24.4 0.0 0.1
06:51 13.4 10.8 84 994.7 20.6 SW 24.4 0.0 0.1
06:52 13.4 10.8 84 994.7 22.8 SW 24.4 0.0 0.1
06:53 13.4 10.8 84 994.5 19.7 S 24.4 0.0 0.1
06:54 13.4 10.8 84 994.5 19.7 SW 24.4 0.0 0.1
06:55 13.4 10.8 84 994.6 22.8 SW 24.4 0.0 0.1
06:56 13.3 10.7 84 994.4 19.7 WSW 24.4 0.0 0.1
06:57 13.3 10.7 84 994.6 23.5 SW 24.4 0.0 0.1
06:58 13.3 10.7 84 994.6 25.9 SW 25.9 0.0 0.1
06:59 13.3 10.5 83 994.5 26.6 SW 26.6 0.0 0.1
07:00 13.3 10.5 83 994.8 22.8 S 26.6 0.0 0.1
07:01 13.3 10.5 83 994.5 22.8 S 26.6 0.0 0.1
07:02 13.3 10.5 83 994.6 22.8 S 26.6 0.0 0.1
07:04 13.3 10.5 83 994.5 22.8 S 26.6 0.0 0.1
07:05 13.3 10.5 83 994.9 22.8 S 26.6 0.0 0.1
07:06 13.2 10.4 83 994.6 19.0 S 26.6 0.0 0.1
07:07 13.2 10.4 83 994.7 23.5 SW 26.6 0.0 0.1
07:08 13.2 10.4 83 994.7 21.3 SW 26.6 0.0 0.1
07:09 13.2 10.4 83 994.7 21.3 SW 26.6 0.0 0.1
07:10 13.2 10.4 83 994.5 19.7 ESE 23.5 0.0 0.1
07:11 13.2 10.4 83 994.6 22.8 SW 23.5 0.0 0.1
07:12 13.2 10.4 83 994.8 22.8 SW 23.5 0.0 0.1
07:13 13.2 10.4 83 994.6 22.1 S 23.5 0.0 0.1
07:14 13.2 10.4 83 994.7 20.6 SW 23.5 0.0 0.1
07:15 13.2 10.4 83 994.7 14.5 SW 23.5 0.0 0.1
07:16 13.1 10.3 83 994.7 25.1 S 25.1 0.0 0.1
07:18 13.1 10.3 83 994.7 20.6 S 25.1 0.0 0.1
07:19 13.1 10.3 83 994.5 20.6 S 25.1 0.0 0.1
07:20 13.2 10.4 83 994.5 18.3 SW 25.1 0.0 0.1
07:21 13.2 10.4 83 994.6 20.6 SW 25.1 0.0 0.1
07:22 13.2 10.4 83 994.6 20.6 SW 25.1 0.0 0.1
07:23 13.2 10.4 83 994.6 19.0 S 25.1 0.0 0.1
07:24 13.2 10.4 83 994.5 14.5 S 25.1 0.0 0.1
07:25 13.2 10.4 83 994.4 22.8 SW 25.1 0.0 0.1
07:26 13.1 10.3 83 994.4 22.8 S 25.1 0.0 0.1
07:27 13.1 10.3 83 994.5 22.8 S 25.1 0.0 0.1
07:28 13.1 10.3 83 994.6 22.8 S 25.1 0.0 0.1
07:29 13.1 10.1 82 994.7 19.0 SW 25.1 0.0 0.1
07:30 13.1 10.1 82 994.5 24.4 SW 24.4 0.0 0.1
07:32 13.1 10.1 82 994.4 19.0 SW 24.4 0.0 0.1
07:33 13.1 10.1 82 994.6 16.8 S 24.4 0.0 0.1
07:34 13.1 10.1 82 994.4 22.8 S 24.4 0.0 0.1
07:35 13.1 10.1 82 994.5 20.6 SW 24.4 0.0 0.1
07:36 13.1 10.1 82 994.5 22.8 S 24.4 0.0 0.1
07:37 13.1 10.1 82 994.5 22.8 S 24.4 0.0 0.1
07:38 13.1 10.1 82 994.6 22.8 S 24.4 0.0 0.1
07:39 13.2 10.2 82 994.4 22.1 S 24.4 0.0 0.1
07:40 13.2 10.2 82 994.4 22.1 SW 24.4 0.0 0.1
07:41 13.2 10.2 82 994.6 21.3 S 22.8 0.0 0.1
07:42 13.2 10.2 82 994.3 19.0 S 22.8 0.0 0.1
07:43 13.2 10.2 82 994.8 23.5 S 23.5 0.0 0.1
07:44 13.3 10.3 82 994.8 23.5 S 23.5 0.0 0.1
07:46 13.3 10.3 82 994.6 23.5 S 23.5 0.0 0.1
07:47 13.3 10.3 82 994.5 23.5 S 23.5 0.0 0.1
07:48 13.3 10.3 82 994.6 23.5 S 23.5 0.0 0.1
07:49 13.3 10.3 82 994.7 23.5 S 23.5 0.0 0.1
07:50 13.4 10.6 83 994.4 18.3 SW 23.5 0.0 0.1
07:51 13.4 10.6 83 994.6 15.2 SW 23.5 0.0 0.1
07:52 13.4 10.6 83 994.6 21.3 SW 23.5 0.0 0.1
07:53 13.4 10.6 83 994.6 21.3 WNW 23.5 0.0 0.1
07:54 13.4 10.6 83 994.6 23.5 SW 23.5 0.0 0.1
07:55 13.4 10.6 83 994.5 17.4 SW 23.5 0.0 0.1
07:56 13.4 10.6 83 994.4 20.6 SW 23.5 0.0 0.1
07:57 13.4 10.6 83 994.3 20.6 SW 23.5 0.0 0.1
07:58 13.4 10.6 83 994.5 20.6 SW 23.5 0.0 0.1
08:00 13.4 10.6 83 994.7 25.9 SW 25.9 0.0 0.1
08:01 13.4 10.6 83 994.5 20.6 SW 25.9 0.0 0.1
08:02 13.4 10.6 83 994.5 19.7 SW 25.9 0.0 0.1
08:03 13.4 10.6 83 994.7 20.6 S 25.9 0.0 0.1
08:04 13.5 10.7 83 994.6 20.6 SW 25.9 0.0 0.1
08:05 13.5 10.7 83 994.6 20.6 SW 25.9 0.0 0.1
08:06 13.5 10.7 83 994.4 20.6 SW 25.9 0.0 0.1
08:07 13.4 10.6 83 994.7 16.8 SW 25.9 0.0 0.1
08:08 13.4 10.6 83 994.4 27.3 SW 27.3 0.0 0.1
08:09 13.4 10.6 83 994.6 21.3 SW 27.3 0.0 0.1
08:10 13.4 10.6 83 994.7 25.1 S 27.3 0.0 0.1
08:11 13.4 10.6 83 994.4 14.5 S 27.3 0.0 0.1
08:12 13.4 10.6 83 994.5 18.3 SW 27.3 0.0 0.1
08:14 13.4 10.6 83 994.7 19.0 SW 27.3 0.0 0.1
08:15 13.4 10.6 83 994.5 22.1 S 27.3 0.0 0.1
08:16 13.4 10.6 83 994.6 22.1 S 27.3 0.0 0.1
08:17 13.4 10.6 83 994.7 23.5 SW 27.3 0.0 0.1
08:18 13.4 10.6 83 994.8 23.5 SW 25.1 0.0 0.1
08:19 13.4 10.6 83 994.7 25.9 SW 25.9 0.0 0.1
08:20 13.4 10.6 83 994.6 24.4 SW 25.9 0.0 0.1
08:21 13.4 10.6 83 994.5 15.9 SW 25.9 0.0 0.1
08:22 13.4 10.6 83 994.5 17.4 S 25.9 0.0 0.1
08:23 13.4 10.6 83 994.7 20.6 S 25.9 0.0 0.1
08:24 13.4 10.6 83 994.6 22.8 S 25.9 0.0 0.1
08:25 13.4 10.6 83 994.5 22.8 SW 25.9 0.0 0.1
08:26 13.4 10.6 83 994.7 17.4 S 25.9 0.0 0.1
08:27 13.4 10.6 83 994.5 19.7 S 25.9 0.0 0.1
08:29 13.4 10.6 83 994.7 19.0 SW 24.4 0.0 0.1
08:30 13.4 10.4 82 994.6 21.3 S 22.8 0.0 0.1
08:31 13.4 10.4 82 994.6 20.6 SW 22.8 0.0 0.1
08:32 13.4 10.4 82 994.7 24.4 S 24.4 0.0 0.1
08:33 13.4 10.4 82 994.7 23.5 SW 24.4 0.0 0.1
08:34 13.4 10.4 82 994.7 23.5 SW 24.4 0.0 0.1
08:35 13.4 10.4 82 994.6 22.8 SW 24.4 0.0 0.1
08:36 13.4 10.4 82 994.8 21.3 S 24.4 0.0 0.1
08:37 13.4 10.4 82 994.7 21.3 SW 24.4 0.0 0.1
08:38 13.4 10.4 82 994.6 26.6 S 26.6 0.0 0.1
08:39 13.4 10.4 82 995.0 25.1 S 26.6 0.0 0.1
08:40 13.4 10.4 82 994.7 25.1 S 26.6 0.0 0.1
08:41 13.4 10.4 82 994.9 25.1 S 26.6 0.0 0.1
08:43 13.5 10.5 82 994.7 22.8 SW 28.2 0.0 0.1
08:44 13.5 10.5 82 994.9 24.4 SW 28.2 0.0 0.1
08:45 13.5 10.5 82 994.9 24.4 SW 28.2 0.0 0.1
08:46 13.5 10.5 82 994.9 22.8 SW 28.2 0.0 0.1
08:47 13.5 10.5 82 994.7 22.8 W 28.2 0.0 0.1
08:48 13.5 10.5 82 994.8 22.8 W 28.2 0.0 0.1
08:49 13.5 10.5 82 994.8 20.6 SW 28.2 0.0 0.1
08:50 13.5 10.5 82 994.6 20.6 SW 28.2 0.0 0.1
08:51 13.5 10.5 82 994.9 20.6 SW 28.2 0.0 0.1
08:52 13.5 10.5 82 994.8 19.0 S 25.1 0.0 0.1
08:53 13.5 10.5 82 994.8 22.1 S 25.1 0.0 0.1
08:54 13.5 10.5 82 995.0 22.1 S 25.1 0.0 0.1
08:55 13.4 10.4 82 994.8 21.3 S 24.4 0.0 0.1
08:57 13.4 10.4 82 994.9 21.3 SW 22.8 0.0 0.1
08:58 13.4 10.4 82 994.9 21.3 SW 22.1 0.0 0.1
08:59 13.4 10.4 82 994.7 21.3 S 22.1 0.0 0.1
09:00 13.4 10.2 81 994.9 19.0 S 22.1 0.0 0.1
09:01 13.4 10.2 81 995.0 19.0 S 22.1 0.0 0.1
09:02 13.4 10.2 81 995.0 19.0 S 22.1 0.0 0.1
09:03 13.4 10.2 81 994.9 19.0 S 22.1 0.0 0.1
09:04 13.4 10.2 81 995.1 19.0 S 21.3 0.0 0.1
09:05 13.4 10.2 81 995.1 19.0 S 21.3 0.0 0.1
09:06 13.4 10.2 81 995.1 25.9 S 25.9 0.0 0.1
09:07 13.4 10.2 81 994.8 19.0 S 25.9 0.0 0.1
09:08 13.4 10.2 81 994.7 21.3 S 25.9 0.0 0.1
09:09 13.4 10.2 81 994.8 19.7 SW 25.9 0.0 0.1
09:10 13.4 10.2 81 994.9 22.1 S 25.9 0.0 0.1
09:11 13.4 10.2 81 994.8 21.3 SW 25.9 0.0 0.1
09:12 13.5 10.3 81 995.0 28.9 S 28.9 0.0 0.1
09:14 13.5 10.3 81 994.7 23.5 S 28.9 0.0 0.1
09:15 13.5 10.3 81 994.8 20.6 S 28.9 0.0 0.1
09:16 13.5 10.3 81 994.8 27.3 SW 28.9 0.0 0.1
09:17 13.5 10.1 80 994.8 22.1 S 28.9 0.0 0.1
09:18 13.5 10.1 80 994.8 22.1 SW 28.9 0.0 0.1
09:19 13.6 10.2 80 994.9 18.3 SW 28.9 0.0 0.1
09:20 13.6 10.2 80 994.9 17.4 S 28.9 0.0 0.1
09:21 13.6 10.2 80 994.8 20.6 S 28.9 0.0 0.1
09:22 13.6 10.2 80 994.8 22.8 S 28.9 0.0 0.1
09:23 13.6 10.2 80 994.9 22.8 S 28.9 0.0 0.1
09:24 13.6 10.2 80 994.8 23.5 SW 27.3 0.0 0.1
09:25 13.6 10.2 80 995.1 23.5 SW 27.3 0.0 0.1
09:26 13.7 10.3 80 994.7 19.7 SW 27.3 0.0 0.1
09:28 13.7 10.3 80 994.8 19.7 S 31.1 0.0 0.1
09:29 13.7 10.3 80 995.0 20.6 SW 31.1 0.0 0.1
09:30 13.7 10.3 80 994.8 22.8 SW 31.1 0.0 0.1
09:31 13.8 10.4 80 994.7 22.1 W 31.1 0.0 0.1
09:32 13.8 10.4 80 995.0 25.1 S 31.1 0.0 0.1
09:33 13.8 10.4 80 995.0 25.1 S 31.1 0.0 0.1
09:34 13.8 10.4 80 995.1 22.8 S 31.1 0.0 0.1
09:35 13.8 10.4 80 995.0 21.3 SW 31.1 0.0 0.1
09:36 13.8 10.4 80 994.8 23.5 S 31.1 0.0 0.1
09:37 13.8 10.4 80 995.0 22.1 S 31.1 0.0 0.1
09:38 13.8 10.4 80 994.8 23.5 SW 25.1 0.0 0.1
09:39 13.8 10.4 80 995.1 22.1 SW 25.1 0.0 0.1
09:40 13.8 10.4 80 995.0 23.5 S 25.1 0.0 0.1
09:42 13.8 10.4 80 995.0 25.9 S 25.9 0.0 0.1
09:43 13.8 10.4 80 994.9 25.9 S 25.9 0.0 0.1
09:44 13.8 10.4 80 995.1 24.4 SW 28.2 0.0 0.1
09:45 13.8 10.4 80 994.9 19.0 SW 28.2 0.0 0.1
09:46 13.8 10.4 80 995.0 25.1 S 28.2 0.0 0.1
09:47 13.8 10.4 80 994.9 21.3 S 28.2 0.0 0.1
09:48 13.8 10.4 80 995.0 22.1 S 28.2 0.0 0.1
09:49 13.8 10.4 80 995.4 26.6 SE 28.2 0.0 0.1
09:50 13.8 10.4 80 995.3 26.6 S 28.2 0.0 0.1
09:51 13.8 10.4 80 995.3 24.4 S 28.2 0.0 0.1
09:52 13.8 10.4 80 995.0 24.4 S 28.2 0.0 0.1
09:53 13.8 10.4 80 995.3 20.6 S 28.2 0.0 0.1
09:54 13.8 10.6 81 994.9 22.1 SW 28.2 0.0 0.1
09:56 13.9 10.7 81 995.2 23.5 SW 27.3 0.0 0.1
09:57 13.9 10.7 81 995.0 19.7 S 27.3 0.0 0.1
09:58 14.0 10.8 81 995.1 25.1 S 27.3 0.0 0.1
09:59 14.0 10.8 81 994.8 28.9 WNW 28.9 0.0 0.1
10:00 14.0 10.8 81 995.1 28.9 SW 28.9 0.0 0.1
10:01 14.0 10.8 81 995.1 28.9 SW 28.9 0.0 0.1
10:02 14.0 10.8 81 995.1 28.9 SW 28.9 0.0 0.1
10:03 14.0 10.8 81 995.1 28.9 SW 28.9 0.0 0.1
10:04 14.0 10.8 81 995.0 28.9 SW 28.9 0.0 0.1
10:05 14.0 10.8 81 995.1 28.9 SW 28.9 0.0 0.1
10:06 14.0 10.8 81 995.0 28.9 SW 28.9 0.0 0.1
10:07 14.0 10.8 81 995.0 21.3 SW 28.9 0.0 0.1
10:08 14.1 10.9 81 995.0 18.3 WNW 28.9 0.0 0.1
10:10 14.1 10.9 81 995.0 22.8 SW 28.9 0.0 0.1
10:11 14.1 10.9 81 994.8 36.5 SW 36.5 0.0 0.1
10:12 14.1 10.7 80 995.0 20.6 S 36.5 0.0 0.1
10:13 14.1 10.7 80 995.1 25.1 SW 36.5 0.0 0.1
10:14 14.1 10.7 80 994.9 28.2 SW 36.5 0.0 0.1
10:15 14.1 10.7 80 995.1 28.9 SW 36.5 0.0 0.1
10:16 14.1 10.7 80 995.0 21.3 S 36.5 0.0 0.1
10:17 14.1 10.7 80 995.2 30.4 S 36.5 0.0 0.1
10:18 14.2 10.8 80 995.0 25.1 SW 36.5 0.0 0.1
10:19 14.2 10.8 80 995.0 28.2 S 36.5 0.0 0.1
10:20 14.2 10.8 80 995.1 25.9 SW 36.5 0.0 0.1
10:21 14.2 10.8 80 995.0 27.3 S 36.5 0.0 0.1
10:22 14.2 10.8 80 995.0 25.1 SW 30.4 0.0 0.1
10:24 14.2 10.8 80 995.0 25.1 SW 30.4 0.0 0.1
10:25 14.2 10.8 80 995.2 25.1 SW 30.4 0.0 0.1
10:26 14.2 10.8 80 995.3 27.3 SW 30.4 0.0 0.1
10:27 14.2 10.8 80 995.1 25.9 S 28.2 0.0 0.1
10:28 14.2 10.8 80 995.2 23.5 W 28.2 0.0 0.1
10:29 14.2 10.8 80 995.2 23.5 W 28.2 0.0 0.1
10:30 14.2 10.8 80 995.0 22.1 SW 27.3 0.0 0.1
10:31 14.2 10.8 80 995.2 26.6 S 27.3 0.0 0.1
10:32 14.2 10.8 80 995.1 22.8 S 27.3 0.0 0.1
10:33 14.2 10.8 80 995.1 24.4 SW 27.3 0.0 0.1
10:34 14.2 10.8 80 995.1 25.1 SW 27.3 0.0 0.1
10:35 14.2 10.8 80 995.4 29.8 S 29.8 0.0 0.1
10:36 14.2 10.6 79 995.2 25.9 SW 29.8 0.0 0.1
10:38 14.2 10.6 79 995.0 22.1 SW 29.8 0.0 0.1
10:39 14.2 10.6 79 995.1 19.0 SW 29.8 0.0 0.1
10:40 14.2 10.6 79 995.2 25.1 SW 29.8 0.0 0.1
10:41 14.2 10.6 79 995.1 25.1 SW 29.8 0.0 0.1
10:42 14.2 10.6 79 995.1 28.9 S 29.8 0.0 0.1
10:43 14.2 10.6 79 995.2 29.8 S 29.8 0.0 0.1
10:44 14.2 10.6 79 995.3 27.3 SW 29.8 0.0 0.1
10:45 14.2 10.6 79 995.2 22.8 SW 29.8 0.0 0.1
10:46 14.2 10.6 79 995.3 25.1 SSW 29.8 0.0 0.1
10:47 14.2 10.6 79 995.2 25.9 SW 29.8 0.0 0.1
10:48 14.2 10.6 79 995.3 25.9 SW 29.8 0.0 0.1
10:49 14.2 10.6 79 995.3 22.1 W 29.8 0.0 0.1
10:50 14.3 10.7 79 995.1 25.1 SW 29.8 0.0 0.1
10:52 14.3 10.5 78 995.3 19.0 S 29.8 0.0 0.1
10:53 14.3 10.5 78 995.3 22.8 S 29.8 0.0 0.1
10:54 14.3 10.5 78 995.0 20.6 S 25.9 0.0 0.1
10:55 14.3 10.5 78 995.2 20.6 S 25.9 0.0 0.1
10:56 14.3 10.5 78 995.2 25.9 S 25.9 0.0 0.1
10:57 14.3 10.5 78 995.2 25.9 S 25.9 0.0 0.1
10:58 14.3 10.5 78 995.3 25.9 S 25.9 0.0 0.1
10:59 14.3 10.5 78 995.3 19.7 SW 25.9 0.0 0.1
11:00 14.3 10.5 78 995.3 21.3 S 25.9 0.0 0.1
11:01 14.3 10.5 78 995.4 21.3 S 25.9 0.0 0.1
11:02 14.3 10.5 78 995.5 21.3 S 25.9 0.0 0.1
11:03 14.3 10.5 78 995.3 20.6 S 25.9 0.0 0.1
11:04 14.3 10.5 78 995.3 21.3 SW 25.9 0.0 0.1
11:06 14.4 10.6 78 995.5 22.8 SW 25.9 0.0 0.1
11:07 14.4 10.6 78 995.5 19.0 SW 25.9 0.0 0.1
11:08 14.4 10.6 78 995.6 22.1 SW 25.9 0.0 0.1
11:09 14.4 10.6 78 995.4 18.3 S 25.9 0.0 0.1
11:10 14.4 10.6 78 995.4 28.2 S 28.2 0.0 0.1
11:11 14.4 10.6 78 995.2 28.2 S 28.2 0.0 0.1
11:12 14.4 10.6 78 995.5 23.5 SW 28.2 0.0 0.1
11:13 14.3 10.5 78 995.2 25.1 SW 28.2 0.0 0.1
11:14 14.3 10.5 78 995.2 25.1 SW 28.2 0.0 0.1
11:15 14.3 10.5 78 995.3 21.3 W 28.2 0.0 0.1
11:16 14.3 10.5 78 995.5 22.1 S 28.2 0.0 0.1
11:17 14.3 10.7 79 995.4 22.1 SW 28.2 0.0 0.1
11:18 14.2 10.6 79 995.5 26.6 SW 28.2 0.0 0.1
11:19 14.2 10.6 79 995.6 22.8 S 28.2 0.0 0.1
11:20 14.2 10.6 79 995.4 22.8 S 28.2 0.0 0.1
11:21 14.3 10.7 79 995.5 25.9 SW 28.2 0.0 0.1
11:23 14.3 10.7 79 995.6 23.5 SW 26.6 0.0 0.1
11:24 14.3 10.7 79 995.7 21.3 SW 26.6 0.0 0.1
11:25 14.4 11.0 80 995.6 21.3 SW 26.6 0.0 0.1
11:26 14.5 11.1 80 995.6 24.4 SW 26.6 0.0 0.1
11:27 14.5 11.1 80 995.5 24.4 SW 26.6 0.0 0.1
11:28 14.6 11.2 80 995.5 24.4 SW 25.9 0.0 0.1
11:29 14.7 11.3 80 995.5 21.3 S 25.9 0.0 0.1
11:30 14.7 11.3 80 995.3 21.3 S 25.9 0.0 0.1
11:31 14.9 11.5 80 995.4 23.5 S 25.9 0.0 0.1
11:32 14.9 11.5 80 995.8 23.5 SW 25.9 0.0 0.1
11:33 15.0 11.6 80 995.6 22.1 SW 24.4 0.0 0.1
11:34 15.0 11.6 80 995.6 23.5 SW 24.4 0.0 0.1
11:35 15.1 11.5 79 995.6 22.8 SW 24.4 0.0 0.1
11:37 15.2 11.4 78 995.6 27.3 SW 27.3 0.0 0.1
11:38 15.2 11.4 78 995.6 22.1 N 27.3 0.0 0.1
11:39 15.2 11.4 78 995.6 25.1 S 27.3 0.0 0.1
11:40 15.2 11.2 77 995.9 25.1 S 27.3 0.0 0.1
11:41 15.3 11.3 77 995.6 22.1 S 27.3 0.0 0.1
11:42 15.3 11.3 77 995.5 22.1 SW 27.3 0.0 0.1
11:43 15.4 11.4 77 995.6 21.3 S 27.3 0.0 0.1
11:44 15.4 11.4 77 995.6 25.1 S 27.3 0.0 0.1
11:45 15.4 11.4 77 995.7 25.1 S 27.3 0.0 0.1
11:46 15.4 11.2 76 995.6 27.3 S 27.3 0.0 0.1
11:47 15.4 11.0 75 995.6 22.1 SW 27.3 0.0 0.1
11:48 15.4 11.0 75 995.6 24.4 SW 27.3 0.0 0.1
11:49 15.4 11.0 75 995.6 25.9 S 27.3 0.0 0.1
11:51 15.5 11.1 75 995.8 25.1 S 27.3 0.0 0.1
11:52 15.5 11.1 75 995.7 25.1 S 27.3 0.0 0.1
11:53 15.5 11.1 75 995.6 25.1 S 27.3 0.0 0.1
11:54 15.5 10.9 74 995.4 22.1 SW 27.3 0.0 0.1
11:55 15.5 10.9 74 995.6 21.3 S 27.3 0.0 0.1
11:56 15.4 10.8 74 995.8 25.9 S 29.8 0.0 0.1
11:57 15.4 10.8 74 995.8 25.9 S 29.8 0.0 0.1
11:58 15.3 10.7 74 995.6 28.2 SW 29.8 0.0 0.1
11:59 15.2 10.6 74 995.5 23.5 W 29.8 0.0 0.1
12:00 15.1 10.5 74 995.5 24.4 SW 29.8 0.0 0.1
12:01 15.1 10.5 74 995.5 24.4 SW 29.8 0.0 0.1
12:02 15.1 10.5 74 995.7 24.4 SW 29.8 0.0 0.1
12:03 15.1 10.5 74 995.7 24.4 SW 29.8 0.0 0.1
12:04 15.1 10.5 74 995.6 24.4 SW 29.8 0.0 0.1
12:06 15.0 10.6 75 995.7 28.9 SW 28.9 0.0 0.1
12:07 15.0 10.6 75 995.7 27.3 S 28.9 0.0 0.1
12:08 15.0 10.6 75 995.7 27.3 SW 28.9 0.0 0.1
12:09 15.0 10.6 75 995.7 27.3 SW 28.9 0.0 0.1
12:10 15.0 10.6 75 995.8 30.4 SW 30.4 0.0 0.1
12:11 15.0 10.6 75 995.4 30.4 S 30.4 0.0 0.1
12:12 15.0 10.6 75 995.8 24.4 SW 30.4 0.0 0.1
12:13 15.0 10.6 75 995.9 25.1 S 30.4 0.0 0.1
12:14 15.0 10.6 75 995.6 26.6 SW 30.4 0.0 0.1
12:15 15.1 10.9 76 995.7 23.5 S 30.4 0.0 0.1
12:16 15.2 11.0 76 995.7 23.5 SW 30.4 0.0 0.1
12:17 15.2 10.8 75 995.5 25.9 S 30.4 0.0 0.1
12:18 15.2 10.8 75 995.6 25.9 SW 30.4 0.0 0.1
12:20 15.2 10.8 75 995.7 28.9 SW 30.4 0.0 0.1
12:21 15.2 10.8 75 995.9 22.1 SW 28.9 0.0 0.1
12:22 15.2 10.8 75 995.7 22.1 SW 28.9 0.0 0.1
12:23 15.1 10.7 75 995.6 24.4 SW 28.9 0.0 0.1
12:24 15.0 10.6 75 995.8 24.4 SW 28.9 0.0 0.1
12:25 15.0 10.6 75 995.8 24.4 SW 28.9 0.0 0.1
12:26 15.0 10.4 74 995.7 28.2 S 28.9 0.0 0.1
12:27 15.0 10.4 74 995.7 29.8 SW 29.8 0.0 0.1
12:28 15.0 10.6 75 995.5 22.8 S 29.8 0.0 0.1
12:29 15.1 10.7 75 995.6 29.8 SW 29.8 0.0 0.1
12:30 15.1 10.7 75 995.7 29.8 SW 29.8 0.0 0.1
12:31 15.2 10.8 75 995.7 25.9 W 29.8 0.0 0.1
12:32 15.3 10.9 75 995.6 25.9 S 29.8 0.0 0.1
12:33 15.3 10.9 75 995.6 22.8 SW 29.8 0.0 0.1
12:35 15.2 10.6 74 995.5 22.8 SW 29.8 0.0 0.1
12:36 15.2 10.6 74 995.9 23.5 S 29.8 0.0 0.1
12:37 15.1 10.5 74 995.8 28.2 S 29.8 0.0 0.1
12:38 15.0 10.4 74 995.7 21.3 SW 29.8 0.0 0.1
12:39 15.0 10.4 74 995.8 23.5 S 29.8 0.0 0.1
12:40 14.9 10.3 74 995.8 28.2 S 30.4 0.0 0.1
12:41 14.9 10.3 74 995.8 28.2 S 30.4 0.0 0.1
12:42 14.9 10.3 74 995.8 25.9 SW 30.4 0.0 0.1
12:43 14.9 10.3 74 995.5 28.9 W 30.4 0.0 0.1
12:44 14.9 10.3 74 995.7 28.9 W 30.4 0.0 0.1
12:45 14.9 10.3 74 995.7 19.0 SW 30.4 0.0 0.1
12:46 15.0 10.4 74 995.7 25.9 SW 30.4 0.0 0.1
12:47 15.0 10.4 74 996.0 29.8 S 30.4 0.0 0.1
12:49 15.1 10.5 74 995.7 25.1 SW 30.4 0.0 0.1
12:50 15.1 10.5 74 995.7 22.8 S 29.8 0.0 0.1
12:51 15.1 10.5 74 995.7 22.8 S 29.8 0.0 0.1
12:52 15.2 10.6 74 995.7 25.9 SW 29.8 0.0 0.1
12:53 15.2 10.6 74 995.6 22.8 S 29.8 0.0 0.1
12:54 15.2 10.6 74 995.5 23.5 W 29.8 0.0 0.1
12:55 15.1 10.5 74 995.9 25.1 SW 29.8 0.0 0.1
12:56 15.1 10.5 74 995.8 25.1 S 29.8 0.0 0.1
12:57 15.1 10.5 74 995.8 25.1 S 29.8 0.0 0.1
12:58 15.0 10.4 74 995.5 23.5 SW 26.6 0.0 0.1
12:59 14.9 10.1 73 995.7 22.1 SW 25.9 0.0 0.1
13:00 14.8 10.0 73 995.5 22.8 W 25.9 0.0 0.1
13:01 14.8 10.0 73 995.6 22.8 W 25.9 0.0 0.1
13:03 14.7 10.1 74 995.6 20.6 S 25.9 0.0 0.1
13:04 14.7 10.1 74 995.8 22.1 SW 25.9 0.0 0.1
13:05 14.7 10.1 74 995.6 20.6 SW 25.9 0.0 0.1
13:06 14.7 10.1 74 995.7 22.1 SW 25.9 0.0 0.1
13:07 14.7 10.1 74 995.5 22.1 SW 25.9 0.0 0.1
13:08 14.8 10.2 74 995.7 23.5 SW 25.9 0.0 0.1
13:09 14.8 10.2 74 995.7 23.5 SW 25.9 0.0 0.1
13:10 14.8 10.2 74 995.8 23.5 SW 25.9 0.0 0.1
13:11 15.0 10.4 74 995.8 25.1 SW 25.9 0.0 0.1
13:12 15.0 10.4 74 995.6 23.5 SW 25.9 0.0 0.1
13:13 15.1 10.5 74 995.8 23.5 SW 25.1 0.0 0.1
13:14 15.2 10.6 74 995.6 20.6 SW 25.1 0.0 0.1
13:15 15.2 10.6 74 995.6 21.3 SW 25.1 0.0 0.1
13:16 15.3 10.5 73 995.8 22.1 SW 28.9 0.0 0.1
13:17 15.3 10.5 73 995.8 22.1 SW 28.9 0.0 0.1
13:18 15.3 10.5 73 995.8 22.8 S 28.9 0.0 0.1
13:19 15.4 10.6 73 995.5 25.9 SW 28.9 0.0 0.1
13:20 15.5 10.7 73 995.6 25.9 SW 28.9 0.0 0.1
13:21 15.5 10.7 73 995.7 25.1 S 28.9 0.0 0.1
13:22 15.6 10.8 73 995.8 25.1 S 28.9 0.0 0.1
13:23 15.6 10.6 72 995.6 26.6 S 31.1 0.0 0.1
13:24 15.6 10.6 72 995.5 20.6 SW 31.1 0.0 0.1
13:26 15.7 10.7 72 995.3 22.1 S 31.1 0.0 0.1
13:27 15.7 10.9 73 995.6 19.7 S 31.1 0.0 0.1
13:28 15.7 10.7 72 995.3 27.3 SW 31.1 0.0 0.1
13:29 15.7 10.7 72 995.4 22.8 SW 31.1 0.0 0.1
13:30 15.7 10.7 72 995.4 22.8 SW 31.1 0.0 0.1
13:31 15.6 10.6 72 995.4 25.1 S 31.1 0.0 0.1
13:32 15.6 10.6 72 995.6 14.5 SW 31.1 0.0 0.1
13:33 15.5 10.5 72 995.5 19.7 SW 28.2 0.0 0.1
13:34 15.5 10.5 72 995.7 22.1 S 28.2 0.0 0.1
13:35 15.4 10.4 72 995.7 28.9 SW 28.9 0.0 0.1
13:36 15.4 10.4 72 995.5 28.9 SW 28.9 0.0 0.1
13:37 15.3 10.3 72 995.5 23.5 SSW 28.9 0.0 0.1
13:38 15.3 10.3 72 995.5 23.5 S 28.9 0.0 0.1
13:40 15.3 10.5 73 995.5 24.4 SW 28.9 0.0 0.1
13:41 15.3 10.5 73 995.6 20.6 SW 28.9 0.0 0.1
13:42 15.3 10.5 73 995.4 21.3 SW 28.9 0.0 0.1
13:43 15.3 10.5 73 995.5 31.1 SW 31.1 0.0 0.1
13:44 15.4 10.6 73 995.6 20.6 SW 32.7 0.0 0.1
13:45 15.4 10.6 73 995.6 20.6 SW 32.7 0.0 0.1
13:46 15.4 10.6 73 995.5 23.5 SW 32.7 0.0 0.1
13:47 15.4 10.6 73 995.6 28.9 S 32.7 0.0 0.1
13:48 15.4 10.6 73 995.5 26.6 SW 32.7 0.0 0.1
13:49 15.4 10.6 73 995.4 25.1 SW 32.7 0.0 0.1
13:50 15.4 10.6 73 995.2 21.3 SW 32.7 0.0 0.1
13:51 15.4 10.6 73 995.5 22.8 E 32.7 0.0 0.1
13:52 15.4 10.6 73 995.5 30.4 SSW 32.7 0.0 0.1
13:53 15.4 10.6 73 995.5 29.8 SW 32.7 0.0 0.1
13:55 15.3 10.5 73 995.4 19.7 SW 30.4 0.0 0.1
13:56 15.2 10.6 74 995.4 24.4 S 30.4 0.0 0.1
13:57 15.2 10.6 74 995.4 20.6 W 30.4 0.0 0.1
13:58 15.2 10.6 74 995.5 20.6 SW 30.4 0.0 0.1
13:59 15.1 10.5 74 995.6 20.6 S 30.4 0.0 0.1
14:00 15.1 10.7 75 995.5 18.3 S 30.4 0.0 0.1
14:01 15.1 10.7 75 995.7 18.3 S 30.4 0.0 0.1
14:02 15.1 10.7 75 995.4 18.3 S 30.4 0.0 0.1
14:03 15.1 10.9 76 995.4 25.9 SW 29.8 0.0 0.1
14:04 15.1 10.9 76 995.6 21.3 S 25.9 0.0 0.1
14:05 15.1 10.9 76 995.4 22.1 S 25.9 0.0 0.1
14:06 15.1 10.9 76 995.4 23.5 S 25.9 0.0 0.1
14:07 15.1 10.9 76 995.4 22.8 SW 25.9 0.0 0.1
14:09 15.1 10.9 76 995.3 24.4 SW 25.9 0.0 0.1
14:10 15.1 10.9 76 995.4 24.4 SW 25.9 0.0 0.1
14:11 15.0 11.0 77 995.5 26.6 S 26.6 0.0 0.1
14:12 15.0 11.0 77 995.4 27.3 SW 27.3 0.0 0.1
14:13 15.0 11.0 77 995.5 22.8 SW 27.3 0.0 0.1
14:14 15.0 11.0 77 995.4 22.1 W 27.3 0.0 0.1
14:15 15.0 11.0 77 995.3 23.5 W 27.3 0.0 0.1
14:16 15.0 11.0 77 995.5 25.1 S 27.3 0.0 0.1
14:17 15.0 11.0 77 995.3 26.6 SW 27.3 0.0 0.1
14:18 15.0 11.0 77 995.4 23.5 SW 27.3 0.0 0.1
14:19 14.9 10.9 77 995.1 23.5 SW 27.3 0.0 0.1
14:20 14.9 10.9 77 995.3 22.1 S 27.3 0.0 0.1
14:21 14.9 10.9 77 995.4 25.9 S 27.3 0.0 0.1
14:23 14.8 10.8 77 995.6 19.7 SW 26.6 0.0 0.1
14:24 14.8 10.8 77 995.4 19.0 SW 26.6 0.0 0.1
14:25 14.8 10.8 77 995.5 17.4 SW 26.6 0.0 0.1
14:26 14.8 10.8 77 995.5 15.9 SW 26.6 0.0 0.1
14:27 14.8 11.0 78 995.7 22.1 W 25.9 0.0 0.1
14:28 14.8 11.0 78 995.4 20.6 S 25.9 0.0 0.1
14:29 14.8 11.0 78 995.4 20.6 S 25.9 0.0 0.1
14:30 14.8 11.0 78 995.2 19.0 SW 25.9 0.0 0.1
14:31 14.7 10.9 78 995.4 23.5 SW 25.9 0.0 0.1
14:32 14.7 10.9 78 995.4 20.6 S 25.9 0.0 0.1
14:33 14.7 10.9 78 995.4 23.5 SW 23.5 0.0 0.1
14:34 14.7 10.9 78 995.3 20.6 S 23.5 0.0 0.1
14:35 14.7 10.9 78 995.4 22.8 SW 23.5 0.0 0.1
14:37 14.7 10.9 78 995.4 22.1 S 23.5 0.0 0.1
14:38 14.7 10.9 78 995.5 22.1 SW 23.5 0.0 0.1
14:39 14.7 10.9 78 995.2 21.3 SW 23.5 0.0 0.1
14:40 14.7 10.9 78 995.5 17.4 SW 23.5 0.0 0.1
14:41 14.7 11.1 79 995.3 16.8 SW 23.5 0.0 0.1
14:42 14.7 11.1 79 995.5 17.4 SW 23.5 0.0 0.1
14:43 14.7 11.1 79 995.4 19.7 S 23.5 0.0 0.1
14:44 14.7 11.1 79 995.5 21.3 S 23.5 0.0 0.1
14:45 14.8 11.2 79 995.4 22.1 SW 23.5 0.0 0.1
14:46 14.8 11.2 79 995.3 21.3 S 23.5 0.0 0.1
14:47 14.7 11.1 79 995.5 20.6 S 24.4 0.0 0.1
14:48 14.7 11.1 79 995.3 17.4 SW 24.4 0.0 0.1
14:49 14.7 11.1 79 995.3 20.6 SW 24.4 0.0 0.1
14:51 14.7 11.1 79 995.3 22.1 W 24.4 0.0 0.1
14:52 14.7 11.3 80 995.5 18.3 SW 24.4 0.0 0.1
14:53 14.7 11.3 80 995.4 21.3 SW 24.4 0.0 0.1
14:54 14.7 11.3 80 995.5 20.6 S 24.4 0.0 0.1
14:55 14.7 11.3 80 995.4 22.1 SW 24.4 0.0 0.1
14:56 14.8 11.4 80 995.3 23.5 SW 24.4 0.0 0.1
14:57 14.8 11.4 80 995.3 23.5 SW 24.4 0.0 0.1
14:58 14.8 11.4 80 995.4 25.1 S 25.1 0.0 0.1
14:59 14.8 11.4 80 995.6 21.3 S 25.1 0.0 0.1
15:00 14.8 11.4 80 995.5 25.9 SW 25.9 0.0 0.1
15:01 14.8 11.4 80 995.3 25.9 SW 25.9 0.0 0.1
15:02 14.8 11.4 80 995.5 25.9 SW 25.9 0.0 0.1
15:03 14.8 11.4 80 995.5 25.9 SW 25.9 0.0 0.1
15:04 14.8 11.4 80 995.6 25.9 SW 25.9 0.0 0.1
15:06 14.8 11.4 80 995.5 22.1 SE 25.9 0.0 0.1
15:07 14.8 11.4 80 995.5 22.1 SW 25.9 0.0 0.1
15:08 14.7 11.3 80 995.5 24.4 S 25.9 0.0 0.1
15:09 14.7 11.3 80 995.3 23.5 SW 25.9 0.0 0.1
15:10 14.7 11.3 80 995.4 26.6 W 26.6 0.0 0.1
15:11 14.7 11.3 80 995.3 22.1 W 26.6 0.0 0.1
15:12 14.7 11.3 80 995.7 19.7 SW 26.6 0.0 0.1
15:13 14.7 11.3 80 995.7 13.6 SW 26.6 0.0 0.1
15:14 14.7 11.3 80 995.4 20.6 SW 26.6 0.0 0.1
15:15 14.7 11.3 80 995.4 19.0 SW 26.6 0.0 0.1
15:16 14.7 11.3 80 995.5 18.3 SW 26.6 0.0 0.1
15:17 14.7 11.3 80 995.5 18.3 SW 26.6 0.0 0.1
15:18 14.7 11.3 80 995.7 19.0 SW 26.6 0.0 0.1
15:19 14.7 11.3 80 995.5 28.9 S 28.9 0.0 0.1
15:20 14.6 11.2 80 995.4 18.3 SW 28.9 0.0 0.1
15:21 14.6 11.2 80 995.5 21.3 S 28.9 0.0 0.1
15:22 14.6 11.2 80 995.3 19.7 SW 28.9 0.0 0.1
15:23 14.6 11.2 80 995.6 18.3 S 28.9 0.0 0.1
15:24 14.6 11.2 80 995.6 20.6 SW 28.9 0.0 0.1
15:26 14.6 11.2 80 995.5 21.3 SW 28.9 0.0 0.1
15:27 14.6 11.2 80 995.5 25.9 W 28.9 0.0 0.1
15:28 14.6 11.2 80 995.7 25.9 SW 28.9 0.0 0.1
15:29 14.6 11.2 80 995.4 25.9 SW 28.9 0.0 0.1
15:30 14.6 11.2 80 995.7 20.6 SW 25.9 0.0 0.1
15:31 14.5 11.1 80 995.9 23.5 S 25.9 0.0 0.1
15:32 14.5 11.1 80 995.7 22.1 SW 25.9 0.0 0.1
15:33 14.5 11.1 80 995.5 19.7 S 25.9 0.0 0.1
15:34 14.5 11.1 80 995.7 22.1 S 25.9 0.0 0.1
15:35 14.5 11.3 81 995.8 25.9 S 25.9 0.0 0.1
15:36 14.5 11.3 81 995.6 22.1 S 25.9 0.0 0.1
15:37 14.5 11.3 81 995.5 16.8 SW 25.9 0.0 0.1
15:38 14.5 11.3 81 995.6 19.0 SW 25.9 0.0 0.1
15:40 14.5 11.3 81 995.6 23.5 SSW 25.9 0.0 0.1
15:41 14.5 11.3 81 995.6 20.6 S 25.9 0.0 0.1
15:42 14.5 11.3 81 995.6 20.6 SW 25.9 0.0 0.1
15:43 14.5 11.3 81 995.7 20.6 S 25.9 0.0 0.1
15:44 14.5 11.3 81 995.6 24.4 S 25.9 0.0 0.1
15:45 14.5 11.3 81 995.6 24.4 S 25.9 0.0 0.1
15:46 14.5 11.3 81 995.4 22.8 SE 24.4 0.0 0.1
15:47 14.4 11.2 81 995.6 17.4 SW 24.4 0.0 0.1
15:48 14.4 11.2 81 995.6 19.0 SW 24.4 0.0 0.1
15:49 14.4 11.2 81 995.4 25.1 SW 25.1 0.0 0.1
15:50 14.4 11.2 81 995.7 22.1 S 25.1 0.0 0.1
15:51 14.4 11.2 81 995.7 21.3 SW 25.1 0.0 0.1
15:52 14.4 11.2 81 995.6 17.4 SW 25.1 0.0 0.1
15:54 14.4 11.2 81 995.7 23.5 SW 25.1 0.0 0.1
15:55 14.4 11.2 81 995.8 21.3 S 25.1 0.0 0.1
15:56 14.4 11.2 81 995.7 18.3 SW 25.1 0.0 0.1
15:57 14.4 11.2 81 995.5 22.1 S 25.1 0.0 0.1
15:58 14.4 11.2 81 995.9 19.0 SW 25.1 0.0 0.1
15:59 14.4 11.2 81 995.7 21.3 S 25.1 0.0 0.1
16:00 14.4 11.2 81 995.5 19.7 W 25.1 0.0 0.1
16:01 14.4 11.2 81 995.5 19.7 W 25.1 0.0 0.1
16:02 14.4 11.2 81 995.6 19.7 W 25.1 0.0 0.1
16:03 14.4 11.4 82 995.4 18.3 SW 25.1 0.0 0.1
16:04 14.4 11.4 82 995.7 20.6 SW 23.5 0.0 0.1
16:05 14.4 11.4 82 995.4 22.8 SW 22.8 0.0 0.1
16:06 14.4 11.4 82 995.6 19.0 SW 22.8 0.0 0.1
16:08 14.4 11.4 82 995.7 28.9 S 28.9 0.0 0.1
16:09 14.4 11.4 82 995.7 28.9 SW 28.9 0.0 0.1
16:10 14.4 11.4 82 995.5 21.3 SW 28.9 0.0 0.1
16:11 14.4 11.4 82 995.5 18.3 SW 28.9 0.0 0.1
16:12 14.4 11.4 82 995.5 19.0 SW 28.9 0.0 0.1
16:13 14.4 11.4 82 995.5 19.0 SW 28.9 0.0 0.1
16:14 14.4 11.4 82 995.3 18.3 SW 28.9 0.0 0.1
16:15 14.4 11.4 82 995.5 18.3 S 28.9 0.0 0.1
16:16 14.4 11.4 82 995.2 20.6 S 28.9 0.0 0.1
16:17 14.4 11.4 82 995.5 20.6 WNW 28.9 0.0 0.1
16:18 14.4 11.4 82 995.3 15.2 S 28.9 0.0 0.1
16:19 14.4 11.4 82 995.4 28.2 SW 28.9 0.0 0.1
16:20 14.4 11.4 82 995.7 21.3 S 28.2 0.0 0.1
16:22 14.3 11.3 82 995.4 22.8 SW 28.2 0.0 0.1
16:23 14.3 11.3 82 995.5 22.8 SW 28.2 0.0 0.1
16:24 14.3 11.3 82 995.3 23.5 SW 28.2 0.0 0.1
16:25 14.3 11.3 82 995.4 21.3 S 28.2 0.0 0.1
16:26 14.3 11.3 82 995.5 19.7 S 28.2 0.0 0.1
16:27 14.3 11.3 82 995.4 17.4 SW 28.2 0.0 0.1
16:28 14.3 11.3 82 995.2 21.3 SW 28.2 0.0 0.1
16:29 14.3 11.3 82 995.4 16.8 S 28.2 0.0 0.1
16:30 14.3 11.3 82 995.4 17.4 SW 23.5 0.0 0.1
16:31 14.3 11.3 82 995.3 19.7 SW 23.5 0.0 0.1
16:32 14.3 11.5 83 995.4 19.7 SW 23.5 0.0 0.1
16:33 14.3 11.5 83 995.2 18.3 S 23.5 0.0 0.1
16:34 14.3 11.5 83 995.3 15.9 S 23.5 0.0 0.1
16:36 14.2 11.4 83 995.4 22.8 SW 22.8 0.0 0.1
16:37 14.2 11.4 83 995.2 18.3 S 22.8 0.0 0.1
16:38 14.2 11.4 83 995.3 19.0 S 22.8 0.0 0.1
16:39 14.2 11.4 83 995.5 19.0 SW 22.8 0.0 0.1
16:40 14.2 11.4 83 995.2 21.3 S 22.8 0.0 0.1
16:41 14.2 11.4 83 995.2 21.3 S 22.8 0.0 0.1
16:42 14.2 11.4 83 995.2 21.3 S 22.8 0.0 0.1
16:43 14.2 11.4 83 995.4 20.6 SW 22.8 0.0 0.1
16:44 14.2 11.4 83 995.5 17.4 S 22.8 0.0 0.1
16:45 14.2 11.4 83 995.5 14.5 SW 22.8 0.0 0.1
16:46 14.2 11.4 83 995.4 20.6 SW 22.8 0.0 0.1
16:47 14.2 11.4 83 995.3 19.0 SW 21.3 0.0 0.1
16:48 14.2 11.4 83 995.2 22.1 SW 22.1 0.0 0.1
16:50 14.2 11.4 83 995.2 19.7 S 22.1 0.0 0.1
16:51 14.2 11.4 83 995.5 16.8 S 22.1 0.0 0.1
16:52 14.2 11.4 83 995.5 16.8 SW 22.1 0.0 0.1
16:53 14.2 11.4 83 995.4 18.3 S 22.1 0.0 0.1
16:54 14.2 11.4 83 995.3 16.8 SW 22.1 0.0 0.1
16:55 14.2 11.4 83 995.4 16.8 S 22.1 0.0 0.1
16:56 14.2 11.4 83 995.6 19.0 SW 22.1 0.0 0.1
16:57 14.2 11.4 83 995.4 19.0 SW 22.1 0.0 0.1
16:58 14.2 11.4 83 995.4 15.9 SW 22.1 0.0 0.1
16:59 14.2 11.4 83 995.5 21.3 W 21.3 0.0 0.1
17:00 14.2 11.4 83 995.5 18.3 SW 21.3 0.0 0.1
17:01 14.2 11.4 83 995.3 18.3 SW 21.3 0.0 0.1
17:02 14.2 11.4 83 995.3 18.3 SW 21.3 0.0 0.1
17:03 14.2 11.4 83 995.5 17.4 SW 21.3 0.0 0.1
17:05 14.3 11.5 83 995.4 20.6 SW 21.3 0.0 0.1
17:06 14.3 11.5 83 995.3 23.5 S 23.5 0.0 0.1
17:07 14.3 11.5 83 995.3 22.1 SW 23.5 0.0 0.1
17:08 14.3 11.5 83 995.3 19.7 S 23.5 0.0 0.1
17:09 14.3 11.5 83 995.4 19.0 S 23.5 0.0 0.1
17:10 14.3 11.5 83 995.4 19.0 S 23.5 0.0 0.1
17:11 14.3 11.5 83 995.3 21.3 SW 23.5 0.0 0.1
17:12 14.3 11.5 83 995.4 19.0 SW 23.5 0.0 0.1
17:13 14.3 11.5 83 995.4 15.9 W 23.5 0.0 0.1
17:14 14.3 11.5 83 995.4 16.8 SW 23.5 0.0 0.1
17:15 14.3 11.5 83 995.4 21.3 SW 23.5 0.0 0.1
17:16 14.3 11.5 83 995.5 16.8 S 23.5 0.0 0.1
17:17 14.3 11.5 83 995.6 16.8 S 22.8 0.0 0.1
17:18 14.3 11.5 83 995.3 19.0 SW 22.8 0.0 0.1
17:19 14.3 11.5 83 995.3 18.3 S 22.8 0.0 0.1
17:20 14.3 11.5 83 995.4 16.8 S 22.8 0.0 0.1
17:21 14.3 11.5 83 995.2 16.8 WNW 22.8 0.0 0.1
17:22 14.3 11.5 83 995.2 15.2 S 22.8 0.0 0.1
17:23 14.3 11.5 83 995.6 22.8 S 22.8 0.0 0.1
17:24 14.3 11.5 83 995.4 19.7 S 22.8 0.0 0.1
17:25 14.3 11.5 83 995.4 20.6 S 22.8 0.0 0.1
17:26 14.3 11.5 83 995.2 20.6 SW 22.8 0.0 0.1
17:28 14.2 11.4 83 995.4 13.0 S 22.8 0.0 0.1
17:29 14.2 11.4 83 995.3 18.3 SE 22.8 0.0 0.1
17:30 14.2 11.4 83 995.1 11.4 S 22.8 0.0 0.1
17:31 14.2 11.4 83 995.1 13.0 SW 22.8 0.0 0.1
17:32 14.2 11.4 83 995.2 16.8 SW 22.8 0.0 0.1
17:33 14.2 11.4 83 995.2 15.2 S 20.6 0.0 0.1
17:34 14.2 11.4 83 995.2 15.2 S 20.6 0.0 0.1
17:35 14.2 11.4 83 995.2 18.3 S 20.6 0.0 0.1
17:36 14.2 11.4 83 995.2 22.1 SW 22.1 0.0 0.1
17:37 14.2 11.4 83 995.2 19.7 S 22.1 0.0 0.1
17:38 14.2 11.4 83 995.0 17.4 SW 22.1 0.0 0.1
17:39 14.2 11.5 84 995.1 18.3 SW 22.1 0.0 0.1
17:40 14.2 11.5 84 995.1 16.8 SW 22.1 0.0 0.1
17:41 14.2 11.5 84 995.1 16.8 S 22.1 0.0 0.1
17:43 14.2 11.5 84 995.1 17.4 SW 22.1 0.0 0.1
17:44 14.2 11.5 84 995.2 17.4 SW 22.1 0.0 0.1
17:45 14.2 11.5 84 995.1 21.3 SW 22.1 0.0 0.1
17:46 14.2 11.5 84 995.0 21.3 S 21.3 0.0 0.1
17:47 14.2 11.5 84 995.2 19.0 S 21.3 0.0 0.1
17:48 14.2 11.5 84 994.9 14.5 S 21.3 0.0 0.1
17:49 14.2 11.5 84 994.9 14.5 S 21.3 0.0 0.1
17:50 14.2 11.5 84 995.4 18.3 SW 21.3 0.0 0.1
17:51 14.2 11.5 84 995.0 15.2 S 21.3 0.0 0.1
17:52 14.2 11.5 84 995.2 15.2 S 21.3 0.0 0.1
17:53 14.2 11.5 84 995.1 12.1 S 21.3 0.0 0.1
17:54 14.2 11.5 84 995.3 12.1 S 21.3 0.0 0.1
17:55 14.2 11.5 84 995.1 16.8 SW 21.3 0.0 0.1
17:56 14.2 11.5 84 995.1 16.8 SW 21.3 0.0 0.1
17:57 14.2 11.5 84 995.0 15.2 W 19.0 0.0 0.1
17:59 14.2 11.5 84 995.0 16.8 S 18.3 0.0 0.1
18:00 14.2 11.5 84 995.0 15.9 SW 18.3 0.0 0.1
18:01 14.2 11.5 84 995.1 15.9 SW 18.3 0.0 0.1
18:02 14.2 11.5 84 995.2 15.9 SW 18.3 0.0 0.1
18:03 14.2 11.5 84 995.1 15.9 SW 18.3 0.0 0.1
18:04 14.2 11.5 84 995.0 15.9 SW 18.3 0.0 0.1
18:05 14.2 11.5 84 995.1 15.9 SW 16.8 0.0 0.1
18:06 14.2 11.5 84 995.1 19.0 S 19.0 0.0 0.1
18:07 14.2 11.5 84 995.1 17.4 S 19.0 0.0 0.1
18:08 14.2 11.5 84 995.1 17.4 S 19.0 0.0 0.1
18:09 14.1 11.4 84 994.9 18.3 SW 19.0 0.0 0.1
18:10 14.1 11.4 84 994.9 18.3 S 19.0 0.0 0.1
18:11 14.1 11.4 84 995.1 13.0 S 19.0 0.0 0.1
18:13 14.1 11.4 84 995.2 15.2 S 19.0 0.0 0.1
18:14 14.1 11.4 84 995.1 14.5 SW 19.0 0.0 0.1
18:15 14.1 11.4 84 995.2 13.6 S 19.0 0.0 0.1
18:16 14.1 11.4 84 995.1 15.9 S 18.3 0.0 0.1
18:17 14.1 11.4 84 995.0 15.2 S 18.3 0.0 0.1
18:18 14.1 11.4 84 995.0 17.4 SW 18.3 0.0 0.1
18:19 14.1 11.4 84 995.2 17.4 SW 18.3 0.0 0.1
18:20 14.1 11.4 84 995.1 17.4 SW 17.4 0.0 0.1
18:21 14.1 11.4 84 995.2 17.4 SW 17.4 0.0 0.1
18:22 14.1 11.4 84 995.2 17.4 S 17.4 0.0 0.1
18:23 14.1 11.4 84 995.0 15.9 S 19.0 0.0 0.1
18:24 14.1 11.4 84 995.3 13.6 S 19.0 0.0 0.1
18:25 14.1 11.4 84 995.1 17.4 SW 19.0 0.0 0.1
18:26 14.1 11.4 84 994.9 15.9 SW 19.0 0.0 0.1
18:27 14.1 11.4 84 995.1 14.5 SW 19.0 0.0 0.1
18:29 14.1 11.4 84 995.0 16.8 SW 19.0 0.0 0.1
18:30 14.1 11.4 84 995.2 12.1 SE 19.0 0.0 0.1
18:31 14.1 11.4 84 995.2 16.8 SW 19.0 2.3 0.3
18:32 14.1 11.4 84 995.2 14.5 S 19.0 3.8 0.4
18:33 14.1 11.4 84 994.9 14.5 SW 18.3 3.8 0.4
18:34 14.1 11.4 84 994.9 14.5 SW 18.3 4.5 0.4
18:35 14.1 11.4 84 995.0 14.5 SW 18.3 4.5 0.4
18:36 14.1 11.4 84 995.2 10.7 S 18.3 2.3 0.4
18:37 14.1 11.4 84 995.2 12.1 S 16.8 1.5 0.5
18:38 14.1 11.4 84 995.2 14.5 SW 16.8 1.5 0.5
18:39 14.1 11.4 84 995.0 15.9 SW 17.4 0.8 0.5
18:40 14.1 11.4 84 995.2 15.2 SE 17.4 1.5 0.6
18:41 14.1 11.4 84 995.4 17.4 SW 17.4 1.5 0.6
18:43 14.1 11.4 84 995.1 17.4 WSW 17.4 0.8 0.6
18:44 14.1 11.4 84 995.2 13.0 S 17.4 0.8 0.6
18:45 14.1 11.4 84 995.0 13.6 SW 17.4 0.0 0.6
18:46 14.1 11.4 84 995.3 14.5 S 17.4 0.8 0.6
18:47 14.1 11.4 84 995.0 14.5 SW 17.4 0.8 0.6
18:48 14.0 11.3 84 995.2 19.7 SW 19.7 0.8 0.6
18:49 14.0 11.3 84 995.2 19.7 N 19.7 0.8 0.6
18:50 14.0 11.3 84 995.3 19.7 SW 19.7 0.8 0.6
18:51 14.0 11.3 84 995.1 14.5 SW 19.7 0.0 0.6
18:52 14.0 11.3 84 995.1 11.4 SW 19.7 0.0 0.6
18:53 14.0 11.3 84 995.2 17.4 SW 19.7 0.0 0.6
18:54 14.0 11.3 84 995.2 15.9 SW 19.7 0.8 0.7
18:55 14.0 11.3 84 995.2 14.5 S 19.7 0.8 0.7
18:56 13.9 11.2 84 995.0 13.6 S 19.7 0.8 0.7
18:58 13.9 11.2 84 995.1 15.9 SW 19.7 0.8 0.7
18:59 13.9 11.2 84 995.0 18.3 S 19.7 0.8 0.8
19:00 13.9 11.2 84 994.9 18.3 S 18.3 0.8 0.8
19:01 13.9 11.2 84 995.1 18.3 S 18.3 0.8 0.8
19:02 13.9 11.2 84 995.0 18.3 S 18.3 0.8 0.8
19:03 13.9 11.2 84 995.0 18.3 S 18.3 0.8 0.8
19:04 13.9 11.2 84 995.0 18.3 S 18.3 0.0 0.8
19:05 13.9 11.2 84 995.1 18.3 S 18.3 0.0 0.8
19:06 13.9 11.2 84 995.4 18.3 S 18.3 0.0 0.8
19:07 13.9 11.2 84 995.1 18.3 S 18.3 0.0 0.8
19:08 13.8 11.1 84 995.1 11.4 S 18.3 0.0 0.8
19:09 13.8 11.1 84 995.1 11.4 S 18.3 0.0 0.8
19:10 13.8 11.1 84 995.1 12.1 SW 18.3 0.0 0.8
19:12 13.8 11.1 84 995.3 18.3 S 18.3 0.0 0.8
19:13 13.8 11.1 84 995.1 18.3 SW 18.3 0.0 0.8
19:14 13.8 11.1 84 995.1 16.8 S 18.3 0.0 0.8
19:15 13.8 11.1 84 995.2 16.8 S 18.3 0.8 0.8
19:16 13.8 11.1 84 994.9 13.6 S 18.3 0.8 0.8
19:18 13.8 11.1 84 995.2 15.2 S 18.3 0.8 0.8
19:19 13.8 11.1 84 995.2 9.2 S 18.3 0.8 0.8
19:21 13.7 11.1 84 995.3 13.6 SW 18.3 0.0 0.8
19:22 13.7 11.1 84 995.4 15.2 SW 18.3 0.0 0.8
19:23 13.7 11.1 84 995.2 15.2 S 18.3 0.0 0.8
19:24 13.7 11.1 84 994.9 13.0 S 16.8 0.0 0.8
19:25 13.7 11.1 84 995.1 16.8 S 16.8 0.0 0.8
19:26 13.7 11.1 84 995.1 16.8 SW 16.8 0.0 0.8
19:27 13.7 11.1 84 995.1 14.5 S 16.8 0.0 0.8
19:28 13.7 11.1 84 995.1 15.2 S 16.8 0.0 0.8
19:29 13.7 11.1 84 995.1 14.5 SW 16.8 0.0 0.8
19:30 13.7 11.1 84 995.3 17.4 SE 17.4 0.8 0.9
19:31 13.7 11.1 84 994.9 14.5 S 20.6 0.8 0.9
19:32 13.7 11.1 84 995.1 16.8 SE 20.6 0.8 0.9
19:33 13.7 11.1 84 995.2 16.8 S 20.6 0.8 0.9
19:34 13.7 11.1 84 995.2 15.2 S 20.6 0.8 0.9
19:36 13.6 11.0 84 995.1 12.1 S 20.6 0.0 0.9
19:37 13.6 11.0 84 995.3 14.5 SW 20.6 0.0 0.9
19:38 13.6 11.0 84 995.4 14.5 S 20.6 0.0 0.9
19:39 13.6 11.0 84 995.4 14.5 S 20.6 0.0 0.9
19:40 13.6 11.0 84 995.3 13.0 SE 20.6 0.0 0.9
19:41 13.6 11.0 84 995.3 13.0 SE 16.8 0.0 0.9
19:42 13.6 11.0 84 995.6 10.7 SW 16.8 0.0 0.9
19:43 13.6 11.0 84 995.2 13.0 SE 15.9 0.0 0.9
19:44 13.6 11.0 84 995.3 15.2 S 15.9 0.0 0.9
19:45 13.6 11.0 84 995.3 10.7 S 15.9 0.0 0.9
19:46 13.6 11.0 84 995.3 20.6 S 20.6 0.0 0.9
19:47 13.6 11.0 84 995.3 13.6 S 20.6 0.0 0.9
19:49 13.6 11.0 84 995.3 13.6 S 20.6 0.0 0.9
19:50 13.6 11.0 84 995.2 14.5 SW 20.6 0.0 0.9
19:51 13.6 11.0 84 995.4 11.4 SW 20.6 0.8 0.9
19:52 13.6 11.0 84 995.3 7.6 SW 20.6 0.8 0.9
19:53 13.6 11.0 84 995.2 9.2 SW 20.6 0.8 0.9
19:54 13.6 11.0 84 995.3 9.2 S 20.6 0.8 0.9
19:55 13.6 11.0 84 995.4 12.1 SW 20.6 0.8 0.9
19:56 13.6 11.0 84 995.3 13.6 S 17.4 0.0 0.9
19:57 13.6 11.0 84 995.2 10.7 S 17.4 0.0 0.9
19:58 13.6 11.0 84 995.4 10.7 S 17.4 0.0 0.9
19:59 13.6 11.0 84 995.6 12.1 S 14.5 0.0 0.9
20:00 13.6 11.1 85 995.6 10.7 S 14.5 0.0 0.9
20:01 13.6 11.1 85 995.4 9.8 SW 14.5 0.0 0.9
20:02 13.6 11.1 85 995.3 9.8 SSW 14.5 0.0 0.9
20:04 13.6 11.1 85 995.4 14.5 SW 14.5 0.0 0.9
20:05 13.6 11.1 85 995.4 12.1 S 14.5 0.0 0.9
20:06 13.6 11.1 85 995.4 11.4 S 14.5 0.0 0.9
20:07 13.6 11.1 85 995.4 12.1 SW 14.5 0.0 0.9
20:08 13.6 11.1 85 995.5 15.2 SE 15.2 0.0 0.9
20:09 13.6 11.1 85 995.5 15.2 SE 15.2 0.0 0.9
20:10 13.6 11.1 85 995.2 11.4 SW 15.2 0.0 0.9
20:11 13.6 11.1 85 995.4 13.0 S 15.2 0.0 0.9
20:13 13.6 11.1 85 995.5 13.0 S 15.2 0.0 0.9
20:14 13.6 11.1 85 995.3 13.0 S 15.2 0.0 0.9
20:15 13.6 11.1 85 995.2 14.5 S 15.2 0.0 0.9
20:16 13.6 11.1 85 995.6 13.6 SW 15.2 0.0 0.9
20:18 13.7 11.2 85 995.3 10.7 S 15.2 0.0 0.9
20:19 13.7 11.2 85 995.1 12.1 SW 14.5 0.0 0.9
20:20 13.7 11.2 85 995.2 13.6 S 15.2 0.0 0.9
20:21 13.7 11.2 85 995.2 11.4 SE 15.2 0.0 0.9
20:22 13.7 11.2 85 995.4 11.4 S 15.2 0.0 0.9
20:23 13.7 11.2 85 995.4 9.2 S 15.2 0.0 0.9
20:24 13.7 11.2 85 995.4 19.7 S 19.7 0.0 0.9
20:25 13.7 11.2 85 995.3 19.7 S 19.7 0.0 0.9
20:26 13.7 11.2 85 995.3 10.7 S 19.7 0.0 0.9
20:27 13.7 11.2 85 995.5 9.2 S 19.7 0.0 0.9
20:28 13.7 11.2 85 995.5 13.6 S 19.7 0.0 0.9
20:29 13.7 11.2 85 995.3 12.1 S 19.7 0.0 0.9
20:30 13.7 11.2 85 995.6 19.7 S 19.7 0.0 0.9
20:32 13.7 11.2 85 995.4 9.8 S 19.7 0.0 0.9
20:33 13.7 11.2 85 995.4 13.6 S 19.7 0.0 0.9
20:34 13.7 11.2 85 995.2 10.7 N 19.7 0.0 0.9
20:35 13.7 11.2 85 995.3 14.5 SE 19.7 0.0 0.9
20:36 13.7 11.2 85 995.1 14.5 S 19.7 0.0 0.9
20:37 13.7 11.2 85 995.1 14.5 S 19.7 0.0 0.9
20:38 13.7 11.2 85 995.2 14.5 S 19.7 0.0 0.9
20:39 13.7 11.2 85 995.2 6.9 S 19.7 0.0 0.9
20:40 13.7 11.2 85 995.2 11.4 S 19.7 0.0 0.9
20:41 13.6 11.1 85 995.2 14.5 S 15.2 0.8 1.0
20:42 13.6 11.1 85 995.1 13.0 SE 14.5 0.8 1.0
20:43 13.6 11.1 85 995.1 12.1 S 14.5 0.8 1.0
20:44 13.6 11.1 85 995.1 10.7 SE 14.5 0.8 1.0
20:46 13.6 11.1 85 995.0 10.7 S 14.5 0.0 1.0
20:47 13.6 11.1 85 994.8 13.0 SW 14.5 0.0 1.0
20:48 13.6 11.1 85 994.8 8.3 SW 14.5 0.0 1.0
20:49 13.6 11.1 85 994.8 9.2 S 14.5 0.0 1.0
20:50 13.6 11.1 85 994.7 15.9 S 15.9 0.0 1.0
20:51 13.6 11.1 85 995.0 10.7 S 15.9 0.0 1.0
20:52 13.6 11.1 85 994.9 10.7 S 15.9 0.0 1.0
20:53 13.6 11.1 85 994.7 11.4 SW 15.9 0.0 1.0
20:54 13.6 11.1 85 994.9 13.0 S 15.9 0.0 1.0
20:55 13.6 11.1 85 994.8 12.1 S 15.9 0.0 1.0
20:56 13.6 11.1 85 994.6 12.1 S 15.9 0.0 1.0
20:57 13.6 11.1 85 994.7 9.8 SSW 15.9 0.0 1.0
20:58 13.6 11.1 85 994.9 13.0 SE 15.9 0.0 1.0
20:59 13.6 11.1 85 994.5 15.9 SE 15.9 0.0 1.0
21:00 13.6 11.1 85 994.8 13.6 SW 15.9 0.0 1.0
21:01 13.6 11.1 85 994.7 13.6 SW 15.9 0.0 1.0
21:02 13.6 11.1 85 994.7 13.6 SW 15.9 0.0 1.0
21:03 13.6 11.1 85 994.6 13.6 SW 15.9 0.0 1.0
21:04 13.6 11.1 85 994.6 13.6 SW 15.9 0.0 1.0
21:05 13.6 11.1 85 994.6 13.6 SW 15.9 0.0 1.0
21:06 13.6 11.1 85 994.4 19.0 SW 19.0 0.0 1.0
21:07 13.6 11.1 85 994.5 12.1 SW 19.0 0.0 1.0
21:08 13.6 11.1 85 994.6 11.4 SW 19.0 0.0 1.0
21:09 13.6 11.1 85 994.7 12.1 S 19.0 0.0 1.0
21:10 13.6 11.1 85 994.6 12.1 S 19.0 0.0 1.0
21:11 13.6 11.1 85 994.8 13.0 S 19.0 0.0 1.0
21:12 13.6 11.1 85 994.6 14.5 S 19.0 0.0 1.0
21:13 13.6 11.1 85 994.6 15.9 SW 19.0 0.0 1.0
21:14 13.6 11.1 85 994.5 12.1 S 19.0 0.0 1.0
21:16 13.5 11.0 85 994.5 15.9 SE 15.9 0.0 1.0
21:17 13.5 11.0 85 994.4 15.9 S 15.9 0.0 1.0
21:18 13.5 11.0 85 994.7 11.4 S 15.9 0.0 1.0
21:19 13.5 11.0 85 994.4 13.6 S 15.9 0.0 1.0
21:20 13.5 11.0 85 994.4 9.8 S 15.9 0.0 1.0
21:21 13.5 11.0 85 994.7 9.8 SW 15.9 0.0 1.0
21:22 13.5 11.0 85 994.3 9.2 SW 15.9 0.0 1.0
21:23 13.5 11.0 85 994.4 13.0 S 15.9 0.0 1.0
21:25 13.5 11.0 85 994.3 9.8 S 15.9 0.0 1.0
21:26 13.5 11.0 85 994.4 9.8 S 15.9 0.0 1.0
21:27 13.5 11.0 85 994.4 15.2 SW 15.2 0.0 1.0
21:28 13.5 11.0 85 994.5 13.0 SW 15.2 0.0 1.0
21:29 13.5 11.0 85 994.2 13.0 S 15.2 0.0 1.0
21:30 13.5 11.0 85 994.6 8.3 SSW 15.2 0.0 1.0
21:31 13.5 11.0 85 994.4 10.7 S 15.2 0.0 1.0
21:32 13.5 11.0 85 994.4 13.0 SE 15.2 0.0 1.0
21:33 13.5 11.0 85 994.4 10.7 S 15.2 0.0 1.0
21:34 13.5 11.0 85 994.4 13.0 SW 15.2 0.0 1.0
21:35 13.5 11.0 85 994.3 15.2 S 15.2 0.0 1.0
21:36 13.5 11.0 85 994.3 15.2 SW 15.2 0.0 1.0
21:37 13.5 11.0 85 994.5 9.8 S 15.2 0.0 1.0
21:38 13.5 11.0 85 994.5 12.1 S 15.2 0.0 1.0
21:40 13.5 11.0 85 994.5 8.3 S 15.2 0.0 1.0
21:41 13.5 11.0 85 994.5 10.7 S 15.2 0.0 1.0
21:42 13.5 11.0 85 994.2 9.2 S 15.2 0.0 1.0
21:43 13.5 11.0 85 994.3 8.3 S 15.2 0.0 1.0
21:44 13.5 11.0 85 994.3 12.1 S 15.2 0.0 1.0
21:45 13.5 11.0 85 994.3 12.1 S 15.2 0.0 1.0
21:46 13.5 11.0 85 994.2 12.1 SE 15.2 0.0 1.0
21:47 13.5 11.0 85 994.4 11.4 SSW 12.1 0.0 1.0
21:48 13.5 11.0 85 994.3 12.1 SW 12.1 0.0 1.0
21:49 13.5 11.0 85 994.4 11.4 SW 12.1 0.0 1.0
21:50 13.5 11.0 85 994.5 9.8 S 12.1 0.0 1.0
21:51 13.5 11.0 85 994.5 11.4 SW 12.1 0.0 1.0
21:52 13.5 11.0 85 994.4 12.1 S 12.1 0.0 1.0
21:54 13.5 11.0 85 994.6 11.4 SE 12.1 0.0 1.0
21:55 13.5 11.0 85 994.5 14.5 S 14.5 0.0 1.0
21:56 13.5 11.0 85 994.5 11.4 SW 14.5 0.0 1.0
21:57 13.5 11.0 85 994.6 11.4 S 14.5 0.0 1.0
21:58 13.5 11.0 85 994.5 11.4 SE 14.5 0.0 1.0
21:59 13.5 11.0 85 994.4 12.1 S 14.5 0.0 1.0
22:00 13.5 11.0 85 994.4 12.1 SW 14.5 0.0 1.0
22:01 13.5 11.0 85 994.5 12.1 SW 14.5 0.0 1.0
22:02 13.5 11.0 85 994.4 12.1 SW 14.5 0.0 1.0
22:03 13.5 11.0 85 994.5 12.1 SW 14.5 0.0 1.0
22:04 13.5 11.0 85 994.6 12.1 SW 14.5 0.0 1.0
22:05 13.5 11.0 85 994.4 12.1 SW 14.5 0.0 1.0
22:06 13.5 11.0 85 994.6 12.1 SW 12.1 0.0 1.0
22:07 13.5 11.0 85 994.6 11.4 SW 12.1 0.0 1.0
22:08 13.5 11.0 85 994.6 9.2 SE 12.1 0.0 1.0
22:10 13.5 11.0 85 994.4 11.4 S 12.1 0.0 1.0
22:11 13.5 11.0 85 994.6 11.4 S 12.1 0.0 1.0
22:12 13.5 11.0 85 994.5 9.8 SW 12.1 0.0 1.0
22:13 13.5 11.0 85 994.5 12.1 S 12.1 0.0 1.0
22:14 13.5 11.0 85 994.5 13.6 S 13.6 0.0 1.0
22:15 13.5 11.0 85 994.6 9.8 S 13.6 0.0 1.0
22:16 13.5 11.0 85 994.6 9.8 S 13.6 0.0 1.0
22:17 13.5 11.0 85 994.7 8.3 SW 13.6 0.0 1.0
22:18 13.5 11.0 85 994.6 13.0 S 13.6 0.0 1.0
22:19 13.5 11.0 85 994.5 11.4 S 13.6 0.0 1.0
22:20 13.6 11.1 85 994.5 12.1 SW 13.6 0.0 1.0
22:21 13.6 11.1 85 994.5 12.1 SW 13.6 0.0 1.0
22:22 13.6 11.1 85 994.7 12.1 S 13.6 0.0 1.0
22:24 13.6 11.1 85 994.9 14.5 S 14.5 0.0 1.0
22:25 13.6 11.1 85 994.4 14.5 SW 14.5 0.0 1.0
22:26 13.6 11.1 85 994.7 14.5 SW 14.5 0.0 1.0
22:27 13.6 11.1 85 994.4 13.6 S 14.5 0.0 1.0
22:28 13.6 11.1 85 994.6 13.6 S 14.5 0.0 1.0
22:29 13.6 11.1 85 994.7 10.7 S 14.5 0.0 1.0
22:30 13.6 11.1 85 994.7 10.7 S 14.5 0.0 1.0
22:31 13.6 11.1 85 994.6 9.8 S 14.5 0.0 1.0
22:32 13.6 11.1 85 994.5 11.4 SW 14.5 0.0 1.0
22:33 13.6 11.1 85 994.6 12.1 SW 14.5 0.0 1.0
22:34 13.6 11.1 85 994.7 16.8 S 16.8 0.0 1.0
22:35 13.7 11.1 84 994.7 12.1 S 16.8 0.0 1.0
22:36 13.7 11.1 84 994.5 9.8 S 16.8 0.0 1.0
22:37 13.7 11.1 84 994.7 12.1 SW 16.8 0.0 1.0
22:39 13.7 11.1 84 994.6 9.8 S 16.8 0.0 1.0
22:40 13.7 11.1 84 994.4 11.4 S 16.8 0.0 1.0
22:41 13.7 11.1 84 994.6 12.1 S 16.8 0.0 1.0
22:42 13.7 11.1 84 994.5 13.0 SW 16.8 0.0 1.0
22:43 13.7 11.1 84 994.5 13.0 SW 16.8 0.0 1.0
22:44 13.7 11.1 84 994.6 13.0 SW 16.8 0.0 1.0
22:45 13.7 11.1 84 994.5 9.8 S 13.0 0.0 1.0
22:46 13.7 11.1 84 994.6 11.4 SE 13.0 0.0 1.0
22:47 13.7 11.1 84 994.5 12.1 SE 13.0 0.0 1.0
22:48 13.7 11.1 84 994.7 12.1 S 13.0 0.0 1.0
22:49 13.7 11.1 84 994.6 11.4 S 13.0 0.0 1.0
22:50 13.7 11.1 84 994.7 14.5 S 14.5 0.0 1.0
22:51 13.7 11.1 84 994.7 13.6 SE 14.5 0.0 1.0
22:52 13.7 11.1 84 994.6 9.8 S 14.5 0.0 1.0
22:54 13.6 11.0 84 994.7 9.2 S 14.5 0.0 1.0
22:55 13.6 11.0 84 994.7 10.7 S 14.5 0.0 1.0
22:56 13.6 11.0 84 994.5 10.7 SE 14.5 0.0 1.0
22:57 13.6 11.0 84 994.6 9.8 S 14.5 0.0 1.0
22:58 13.6 11.0 84 994.6 7.6 SE 14.5 0.0 1.0
22:59 13.6 10.8 83 994.6 8.3 SW 14.5 0.0 1.0
23:00 13.6 10.8 83 994.5 9.2 S 13.6 0.0 1.0
23:01 13.6 10.8 83 994.5 9.2 S 13.6 0.0 1.0
23:02 13.6 10.8 83 994.6 9.2 S 11.4 0.0 1.0
23:03 13.6 10.8 83 994.3 9.2 S 11.4 0.0 1.0
23:04 13.6 10.8 83 994.5 9.2 S 11.4 0.0 1.0
23:05 13.6 10.8 83 994.4 9.2 S 11.4 0.0 1.0
23:06 13.6 10.8 83 994.5 9.2 S 11.4 0.0 1.0
23:08 13.5 10.7 83 994.6 10.7 S 13.0 0.0 1.0
23:09 13.5 10.7 83 994.4 10.7 S 13.0 0.0 1.0
23:10 13.5 10.7 83 994.3 10.7 S 13.0 0.0 1.0
23:11 13.5 10.7 83 994.5 7.6 S 13.0 0.0 1.0
23:12 13.5 10.7 83 994.4 10.7 SW 13.0 0.0 1.0
23:13 13.5 10.7 83 994.4 10.7 SW 13.0 0.0 1.0
23:14 13.5 10.7 83 994.3 9.8 S 13.0 0.0 1.0
23:15 13.5 10.7 83 994.4 9.2 SE 13.0 0.0 1.0
23:16 13.5 10.7 83 994.6 9.2 S 13.0 0.0 1.0
23:17 13.5 10.7 83 994.5 8.3 S 10.7 0.0 1.0
23:19 13.5 10.7 83 994.5 8.3 S 10.7 0.0 1.0
23:20 13.5 10.7 83 994.5 9.2 SW 10.7 0.0 1.0
23:21 13.5 10.7 83 994.4 8.3 S 10.7 0.0 1.0
23:22 13.5 10.7 83 994.4 10.7 S 10.7 0.0 1.0
23:23 13.5 10.7 83 994.4 10.7 SE 10.7 0.0 1.0
23:24 13.5 10.7 83 994.4 8.3 SE 10.7 0.0 1.0
23:25 13.5 10.7 83 994.4 8.3 SE 10.7 0.0 1.0
23:26 13.5 10.7 83 994.5 9.8 SE 10.7 0.0 1.0
23:27 13.5 10.7 83 994.5 9.8 SE 10.7 0.0 1.0
23:28 13.6 10.8 83 994.4 9.8 SW 10.7 0.0 1.0
23:29 13.5 10.7 83 994.5 6.0 S 10.7 0.0 1.0
23:30 13.5 10.7 83 994.4 6.9 SE 10.7 0.0 1.0
23:31 13.5 10.7 83 994.3 7.6 SSW 10.7 0.0 1.0
23:32 13.5 10.7 83 994.4 11.4 S 11.4 0.0 1.0
23:34 13.5 10.7 83 994.2 11.4 SW 11.4 0.0 1.0
23:35 13.5 10.7 83 994.4 6.9 S 11.4 0.0 1.0
23:36 13.5 10.7 83 994.3 9.2 SW 11.4 0.0 1.0
23:37 13.5 10.7 83 994.4 9.2 S 11.4 0.0 1.0
23:38 13.5 10.7 83 994.3 6.0 SE 11.4 0.0 1.0
23:39 13.5 10.7 83 994.3 9.2 SW 11.4 0.0 1.0
23:40 13.5 10.7 83 994.4 9.8 S 11.4 0.0 1.0
23:41 13.5 10.7 83 994.3 8.3 S 11.4 0.0 1.0
23:42 13.5 10.7 83 994.5 8.3 S 11.4 0.0 1.0
23:43 13.5 10.7 83 994.5 7.6 S 11.4 0.0 1.0
23:44 13.5 10.7 83 994.4 9.2 S 11.4 0.0 1.0
23:45 13.5 10.7 83 994.4 7.6 S 9.8 0.0 1.0
23:46 13.5 10.7 83 994.5 8.3 S 9.8 0.0 1.0
23:47 13.5 10.7 83 994.4 8.3 SE 9.8 0.0 1.0
23:49 13.6 10.8 83 994.6 6.0 SW 9.8 0.0 1.0
23:50 13.6 10.8 83 994.5 6.0 S 9.2 0.0 1.0
23:51 13.6 10.8 83 994.4 7.6 SE 9.2 0.0 1.0
23:52 13.6 10.8 83 994.4 7.6 SW 9.2 0.0 1.0
23:53 13.6 10.8 83 994.5 6.9 S 9.2 0.0 1.0
23:54 13.6 10.8 83 994.6 6.9 S 8.3 0.0 1.0
23:55 13.5 10.7 83 994.5 9.2 S 9.2 0.0 1.0
23:56 13.5 10.7 83 994.5 9.2 S 9.2 0.0 1.0
23:57 13.5 10.7 83 994.3 7.6 S 9.2 0.0 1.0
23:58 13.5 10.7 83 994.3 6.9 E 9.2 0.0 1.0
23:59 13.5 10.7 83 994.2 7.6 S 9.2 0.0 1.0

 

 

UK - WEATHER STATION TOPSITES - UK World Weather Websites

Copyright © Carnkie Weather 2009 - 2020.